FW4770 Weather Reports


Display with metric or nautical units.
time (UTC)temp
F
wind
direction
speed
MPH
gust
MPH
rain 1hr
in
rain 24hr
in
rain mn
in
humidity
%
barometer
mb
20260905072518 66 127 3.0 7.0 0.00 0.00 0.00 95 1016.9
20260905072356 66 124 2.0 7.0 0.00 0.00 0.00 95 1017.0
20260905072321 66 124 3.0 7.0 0.00 0.00 0.00 95 1017.0
20260905072159 66 119 4.0 7.0 0.00 0.00 0.00 95 1017.0
20260905072108 66 110 4.0 7.0 0.00 0.00 0.00 95 1017.0
20260905072034 66 107 4.0 7.0 0.00 0.00 0.00 95 1017.0
20260905071917 66 123 4.0 7.0 0.00 0.00 0.00 95 1017.0
20260905071842 66 123 4.0 7.0 0.00 0.00 0.00 95 1016.9
20260905071659 66 128 3.0 5.0 0.00 0.00 0.00 95 1016.9
20260905071604 66 128 3.0 4.0 0.00 0.00 0.00 95 1017.0
20260905071508 66 128 2.0 7.0 0.00 0.00 0.00 95 1017.0
20260905071357 66 117 2.0 7.0 0.00 0.00 0.00 95 1016.9
20260905071302 66 117 2.0 7.0 0.00 0.00 0.00 95 1016.9
20260905071207 66 117 1.0 7.0 0.00 0.00 0.00 95 1016.9
20260905071113 66 117 2.0 7.0 0.00 0.00 0.00 95 1016.9
20260905071017 66 117 3.0 7.0 0.00 0.00 0.00 95 1016.9
20260905070920 66 116 3.0 7.0 0.00 0.00 0.00 95 1017.0
20260905070803 66 115 4.0 7.0 0.00 0.00 0.00 95 1016.9
20260905070711 66 115 4.0 7.0 0.00 0.00 0.00 95 1016.9
20260905070615 66 108 4.0 7.0 0.00 0.00 0.00 95 1016.8
20260905070521 66 119 3.0 7.0 0.00 0.00 0.00 95 1016.9
20260905070358 66 124 3.0 7.0 0.00 0.00 0.00 95 1016.9
20260905070323 66 124 3.0 7.0 0.00 0.00 0.00 95 1016.9
20260905070200 66 124 4.0 7.0 0.00 0.00 0.00 95 1016.9
20260905070109 66 108 5.0 7.0 0.00 0.00 0.00 95 1016.9
20260905070014 66 111 4.0 7.0 0.00 0.00 0.00 95 1017.0
20260905065859 66 119 3.0 8.0 0.00 0.00 0.00 95 1017.0
20260905065804 66 120 4.0 8.0 0.00 0.00 0.00 95 1017.0
20260905065709 66 130 4.0 8.0 0.00 0.00 0.00 95 1017.0
20260905065558 66 134 5.0 8.0 0.00 0.00 0.00 95 1017.0
20260905065504 66 108 4.0 8.0 0.00 0.00 0.00 95 1017.0
20260905065408 66 113 4.0 8.0 0.00 0.00 0.00 95 1017.0
20260905065313 66 117 4.0 8.0 0.00 0.00 0.00 95 1017.0
20260905065219 66 102 6.0 8.0 0.00 0.00 0.00 95 1017.0
20260905065102 66 113 6.0 8.0 0.00 0.00 0.00 95 1017.0
20260905065006 66 113 6.0 8.0 0.00 0.00 0.00 95 1017.0
20260905064915 66 118 5.0 8.0 0.00 0.00 0.00 95 1017.0
20260905064820 66 107 5.0 8.0 0.00 0.00 0.00 95 1017.0
20260905064658 66 113 6.0 8.0 0.00 0.00 0.00 95 1017.0
20260905064602 66 96 6.0 8.0 0.00 0.00 0.00 95 1017.0
20260905064527 66 105 5.0 8.0 0.00 0.00 0.00 95 1017.0
20260905064431 66 88 4.0 8.0 0.00 0.00 0.00 95 1016.9
20260905064259 66 117 5.0 8.0 0.00 0.00 0.00 95 1017.1
20260905064225 66 120 5.0 8.0 0.00 0.00 0.00 95 1017.0
20260905064109 66 88 5.0 8.0 0.00 0.00 0.00 95 1017.0
20260905064014 66 110 4.0 8.0 0.00 0.00 0.00 95 1016.9
20260905063919 66 95 5.0 8.0 0.00 0.00 0.00 95 1017.0
20260905063823 66 100 6.0 8.0 0.00 0.00 0.00 95 1017.0
20260905063705 66 79 6.0 9.0 0.00 0.00 0.00 94 1017.0
20260905063610 66 102 6.0 9.0 0.00 0.00 0.00 95 1017.1
20260905063458 66 92 5.0 9.0 0.00 0.00 0.00 95 1017.1
20260905063422 66 81 5.0 9.0 0.00 0.00 0.00 95 1017.1
20260905063300 66 90 5.0 9.0 0.00 0.00 0.00 94 1017.0
20260905063204 66 74 6.0 9.0 0.00 0.00 0.00 94 1017.0
20260905063108 66 99 5.0 9.0 0.00 0.00 0.00 94 1017.0
20260905063013 66 105 6.0 9.0 0.00 0.00 0.00 95 1017.0
20260905062902 66 103 7.0 9.0 0.00 0.00 0.00 95 1017.0
20260905062806 66 109 6.0 8.0 0.00 0.00 0.00 95 1017.0
20260905062711 66 86 5.0 8.0 0.00 0.00 0.00 95 1017.1
20260905062615 66 94 6.0 8.0 0.00 0.00 0.00 95 1017.0
20260905062459 66 101 5.0 9.0 0.00 0.00 0.00 95 1017.0
20260905062405 66 95 5.0 9.0 0.00 0.00 0.00 95 1017.0
20260905062313 66 85 5.0 9.0 0.00 0.00 0.00 95 1017.0
20260905062218 66 111 5.0 9.0 0.00 0.00 0.00 95 1016.9
20260905062143 66 92 4.0 9.0 0.00 0.00 0.00 95 1016.9
20260905062001 66 131 5.0 9.0 0.00 0.00 0.00 95 1016.9
20260905061905 66 114 5.0 9.0 0.00 0.00 0.00 95 1016.9
20260905061809 66 111 6.0 9.0 0.00 0.00 0.00 95 1016.9
20260905061658 66 110 7.0 9.0 0.00 0.00 0.00 95 1016.8
20260905061602 66 108 6.0 11.0 0.00 0.00 0.00 95 1016.9
20260905061507 66 116 5.0 11.0 0.00 0.00 0.00 95 1016.9
20260905061412 66 132 5.0 11.0 0.00 0.00 0.00 95 1016.9
20260905061337 66 92 6.0 11.0 0.00 0.00 0.00 95 1016.9
20260905061221 66 116 6.0 13.0 0.00 0.00 0.00 95 1016.9
20260905061058 66 108 7.0 13.0 0.00 0.00 0.00 95 1016.9
20260905061005 66 98 6.0 13.0 0.00 0.00 0.00 95 1016.9
20260905060910 66 97 5.0 13.0 0.00 0.00 0.00 95 1016.9
20260905060815 66 137 7.0 13.0 0.00 0.00 0.00 95 1016.9
20260905060741 66 98 8.0 13.0 0.00 0.00 0.00 95 1016.8
20260905060558 66 84 9.0 13.0 0.00 0.00 0.00 95 1016.8
20260905060503 66 101 9.0 13.0 0.00 0.00 0.00 95 1016.8
20260905060428 66 91 9.0 13.0 0.00 0.00 0.00 95 1016.8
20260905060316 66 100 8.0 12.0 0.00 0.00 0.00 95 1016.7
20260905060241 66 106 8.0 12.0 0.00 0.00 0.00 95 1016.8
20260905060058 66 100 8.0 12.0 0.00 0.00 0.00 95 1016.7
20260905060004 66 92 8.0 12.0 0.00 0.00 0.00 95 1016.8
20260905055908 66 82 8.0 12.0 0.00 0.00 0.00 95 1016.8
20260905055833 66 94 8.0 12.0 0.00 0.00 0.00 95 1016.7
20260905055700 66 93 8.0 12.0 0.00 0.00 0.00 95 1016.7
20260905055606 66 100 8.0 12.0 0.00 0.00 0.00 95 1016.7
20260905055510 66 87 8.0 11.0 0.00 0.00 0.00 95 1016.7
20260905055415 66 109 7.0 11.0 0.00 0.00 0.00 95 1016.7
20260905055259 66 81 7.0 10.0 0.00 0.00 0.00 95 1016.6
20260905055204 67 98 7.0 10.0 0.00 0.00 0.00 95 1016.6
20260905055128 66 101 6.0 10.0 0.00 0.00 0.00 95 1016.6
20260905055036 66 101 6.0 10.0 0.00 0.00 0.00 95 1016.7
20260905054859 66 79 7.0 10.0 0.00 0.00 0.00 95 1016.6
20260905054804 66 112 7.0 10.0 0.00 0.00 0.00 95 1016.6
20260905054709 66 104 7.0 10.0 0.00 0.00 0.00 95 1016.6
20260905054614 66 92 6.0 9.0 0.00 0.00 0.00 95 1016.6
20260905054459 66 82 6.0 10.0 0.00 0.00 0.00 95 1016.6
20260905054427 66 114 5.0 10.0 0.00 0.00 0.00 95 1016.6
20260905054311 66 114 5.0 10.0 0.00 0.00 0.00 95 1016.6
20260905054236 66 108 6.0 10.0 0.00 0.00 0.00 95 1016.5
20260905054059 66 105 6.0 10.0 0.00 0.00 0.00 95 1016.5
20260905054003 66 112 6.0 10.0 0.00 0.00 0.00 95 1016.5
20260905053928 66 113 6.0 10.0 0.00 0.00 0.00 95 1016.5
20260905053811 66 105 7.0 10.0 0.00 0.00 0.00 95 1016.5
20260905053701 66 111 7.0 10.0 0.00 0.00 0.00 95 1016.5
20260905053605 66 127 7.0 9.0 0.00 0.00 0.00 95 1016.5
20260905053510 66 111 6.0 10.0 0.00 0.00 0.00 95 1016.5
20260905053435 66 105 6.0 10.0 0.00 0.00 0.00 95 1016.6
20260905053319 66 98 6.0 10.0 0.00 0.00 0.00 95 1016.5
20260905053223 66 110 7.0 10.0 0.00 0.00 0.00 95 1016.5
20260905053100 66 111 6.0 10.0 0.00 0.00 0.00 95 1016.5
20260905053009 66 115 6.0 10.0 0.00 0.00 0.00 95 1016.5
20260905052914 66 108 8.0 10.0 0.00 0.00 0.00 95 1016.6
20260905052819 66 118 7.0 10.0 0.00 0.00 0.00 95 1016.5
20260905052656 66 112 5.0 9.0 0.00 0.00 0.00 95 1016.5
20260905052601 66 117 5.0 7.0 0.00 0.00 0.00 95 1016.5
20260905052526 66 121 5.0 7.0 0.00 0.00 0.00 95 1016.5
20260905052430 66 138 5.0 7.0 0.00 0.00 0.00 95 1016.5
20260905052258 66 101 5.0 8.0 0.00 0.00 0.00 95 1016.5
20260905052203 66 120 5.0 8.0 0.00 0.00 0.00 95 1016.5
20260905052128 66 107 4.0 8.0 0.00 0.00 0.00 95 1016.4
20260905052001 66 97 5.0 8.0 0.00 0.00 0.00 95 1016.5
20260905051856 66 125 5.0 8.0 0.00 0.00 0.00 95 1016.4
20260905051753 66 125 5.0 8.0 0.00 0.00 0.00 95 1016.4
20260905051600 66 103 5.0 8.0 0.00 0.00 0.00 95 1016.4
20260905051505 66 131 6.0 8.0 0.00 0.00 0.00 95 1016.4
20260905051414 66 101 5.0 8.0 0.00 0.00 0.00 95 1016.5
20260905051320 66 114 5.0 8.0 0.00 0.00 0.00 95 1016.4
20260905051158 66 103 5.0 8.0 0.00 0.00 0.00 95 1016.4
20260905051103 66 92 6.0 8.0 0.00 0.00 0.00 95 1016.5
20260905051008 66 87 6.0 8.0 0.00 0.00 0.00 94 1016.5
20260905050857 66 112 6.0 8.0 0.00 0.00 0.00 94 1016.5
20260905050821 66 69 5.0 8.0 0.00 0.00 0.00 94 1016.5
20260905050658 66 106 5.0 8.0 0.00 0.00 0.00 94 1016.4
20260905050623 66 94 5.0 8.0 0.00 0.00 0.00 94 1016.4
20260905050500 66 107 6.0 8.0 0.00 0.00 0.00 94 1016.4
20260905050405 66 90 6.0 8.0 0.00 0.00 0.00 94 1016.4
20260905050310 66 102 5.0 8.0 0.00 0.00 0.00 94 1016.4
20260905050218 66 95 5.0 8.0 0.00 0.00 0.00 94 1016.4
20260905050136 66 98 4.0 8.0 0.00 0.00 0.00 94 1016.4
20260905050020 66 98 4.0 7.0 0.00 0.00 0.00 94 1016.5
20260905045903 66 97 4.0 8.0 0.00 0.00 0.00 94 1016.4
20260905045828 66 98 5.0 8.0 0.00 0.00 0.00 94 1016.4
20260905045712 66 108 5.0 8.0 0.00 0.00 0.00 94 1016.4
20260905045617 66 102 3.0 8.0 0.00 0.00 0.00 94 1016.4
20260905045521 66 116 4.0 8.0 0.00 0.00 0.00 94 1016.5
20260905045408 66 103 4.0 8.0 0.00 0.00 0.00 94 1016.5
20260905045313 66 96 4.0 8.0 0.00 0.00 0.00 94 1016.5
20260905045218 66 101 5.0 8.0 0.00 0.00 0.00 94 1016.4
20260905045102 66 115 5.0 8.0 0.00 0.00 0.00 94 1016.5
20260905045027 66 97 4.0 8.0 0.00 0.00 0.00 94 1016.5
20260905044911 66 116 5.0 8.0 0.00 0.00 0.00 94 1016.5
20260905044800 66 109 4.0 8.0 0.00 0.00 0.00 94 1016.5
20260905044706 66 104 4.0 8.0 0.00 0.00 0.00 94 1016.5
20260905044610 66 124 5.0 8.0 0.00 0.00 0.00 94 1016.5
20260905044515 66 122 4.0 8.0 0.00 0.00 0.00 94 1016.4
20260905044400 66 117 4.0 8.0 0.00 0.00 0.00 94 1016.4
20260905044305 66 136 4.0 8.0 0.00 0.00 0.00 94 1016.4
20260905044230 66 128 4.0 8.0 0.00 0.00 0.00 94 1016.4
20260905044138 66 121 5.0 8.0 0.00 0.00 0.00 94 1016.5
20260905043956 66 119 4.0 8.0 0.00 0.00 0.00 94 1016.5
20260905043901 66 117 3.0 8.0 0.00 0.00 0.00 94 1016.5
20260905043806 66 117 4.0 8.0 0.00 0.00 0.00 94 1016.5
20260905043710 66 123 4.0 8.0 0.00 0.00 0.00 94 1016.5
20260905043635 66 130 4.0 8.0 0.00 0.00 0.00 93 1016.5
20260905043503 65 111 3.0 8.0 0.00 0.00 0.00 93 1016.5
20260905043409 65 119 3.0 8.0 0.00 0.00 0.00 93 1016.5
20260905043313 65 133 4.0 8.0 0.00 0.00 0.00 93 1016.5
20260905043158 65 133 4.0 8.0 0.00 0.00 0.00 93 1016.5
20260905043103 65 119 4.0 7.0 0.00 0.00 0.00 93 1016.4
20260905043008 65 136 4.0 7.0 0.00 0.00 0.00 93 1016.4
20260905042857 65 121 3.0 7.0 0.00 0.00 0.00 93 1016.6
20260905042822 65 114 3.0 7.0 0.00 0.00 0.00 93 1016.6
20260905042659 65 113 3.0 7.0 0.00 0.00 0.00 93 1016.5
20260905042622 65 112 3.0 7.0 0.00 0.00 0.00 93 1016.5
20260905042459 65 114 4.0 7.0 0.00 0.00 0.00 93 1016.5
20260905042404 65 101 4.0 7.0 0.00 0.00 0.00 92 1016.6
20260905042314 65 105 4.0 7.0 0.00 0.00 0.00 92 1016.6
20260905042238 65 78 4.0 7.0 0.00 0.00 0.00 92 1016.6
20260905042141 65 112 4.0 7.0 0.00 0.00 0.00 92 1016.6
20260905041958 65 127 5.0 7.0 0.00 0.00 0.00 92 1016.5
20260905041923 65 108 5.0 9.0 0.00 0.00 0.00 92 1016.5
20260905041806 65 107 5.0 9.0 0.00 0.00 0.00 92 1016.6
20260905041711 66 113 5.0 9.0 0.00 0.00 0.00 92 1016.6
20260905041600 66 136 5.0 9.0 0.00 0.00 0.00 92 1016.6
20260905041505 66 99 5.0 9.0 0.00 0.00 0.00 92 1016.6
20260905041411 66 100 5.0 9.0 0.00 0.00 0.00 92 1016.6
20260905041314 66 106 5.0 9.0 0.00 0.00 0.00 92 1016.6
20260905041220 66 103 5.0 9.0 0.00 0.00 0.00 92 1016.7
20260905041057 66 98 4.0 8.0 0.00 0.00 0.00 91 1016.7
20260905041006 66 102 5.0 8.0 0.00 0.00 0.00 91 1016.6
20260905040911 66 96 4.0 8.0 0.00 0.00 0.00 91 1016.6
20260905040756 66 103 3.0 8.0 0.00 0.00 0.00 91 1016.6
20260905040721 66 103 3.0 8.0 0.00 0.00 0.00 91 1016.6
20260905040559 66 113 4.0 8.0 0.00 0.00 0.00 91 1016.5
20260905040503 66 108 4.0 8.0 0.00 0.00 0.00 91 1016.5
20260905040428 66 114 4.0 8.0 0.00 0.00 0.00 91 1016.5
20260905040256 66 90 6.0 8.0 0.00 0.00 0.00 91 1016.5
20260905040201 66 99 6.0 8.0 0.00 0.00 0.00 91 1016.5
20260905040105 67 96 5.0 8.0 0.00 0.00 0.00 91 1016.5
20260905040030 66 103 5.0 8.0 0.00 0.00 0.00 91 1016.5
20260905035914 67 97 6.0 8.0 0.00 0.00 0.00 91 1016.5
20260905035818 67 94 5.0 8.0 0.00 0.00 0.00 91 1016.6
20260905035706 67 88 5.0 8.0 0.00 0.00 0.00 91 1016.5
20260905035611 67 90 5.0 8.0 0.00 0.00 0.00 91 1016.5
20260905035456 67 101 5.0 8.0 0.00 0.00 0.00 91 1016.5
20260905035421 67 113 5.0 8.0 0.00 0.00 0.00 91 1016.5
20260905035306 67 108 4.0 7.0 0.00 0.00 0.00 91 1016.5
20260905035228 67 113 4.0 6.0 0.00 0.00 0.00 91 1016.5
20260905035112 67 108 3.0 6.0 0.00 0.00 0.00 91 1016.5
20260905035001 67 123 2.0 4.0 0.00 0.00 0.00 91 1016.4
20260905034926 67 126 2.0 4.0 0.00 0.00 0.00 91 1016.4
20260905034810 67 126 1.0 4.0 0.00 0.00 0.00 91 1016.4
20260905034715 67 126 1.0 6.0 0.00 0.00 0.00 91 1016.3
20260905034619 67 126 1.0 7.0 0.00 0.00 0.00 91 1016.3
20260905034457 67 126 2.0 7.0 0.00 0.00 0.00 91 1016.4
20260905034422 67 126 2.0 7.0 0.00 0.00 0.00 91 1016.4
20260905034310 67 126 2.0 7.0 0.00 0.00 0.00 91 1016.4
20260905034215 67 126 2.0 8.0 0.00 0.00 0.00 91 1016.4
20260905034100 67 126 3.0 8.0 0.00 0.00 0.00 91 1016.4
20260905034025 67 124 3.0 8.0 0.00 0.00 0.00 91 1016.4
20260905033909 67 124 4.0 8.0 0.00 0.00 0.00 91 1016.4
20260905033814 67 123 4.0 8.0 0.00 0.00 0.00 91 1016.5
20260905033703 67 136 3.0 8.0 0.00 0.00 0.00 91 1016.5
20260905033608 67 136 3.0 8.0 0.00 0.00 0.00 90 1016.5
20260905033533 67 114 4.0 8.0 0.00 0.00 0.00 90 1016.4
20260905033357 67 107 5.0 8.0 0.00 0.00 0.00 90 1016.4
20260905033320 67 113 5.0 8.0 0.00 0.00 0.00 90 1016.5
20260905033204 67 127 5.0 8.0 0.00 0.00 0.00 90 1016.4
20260905033109 67 126 5.0 8.0 0.00 0.00 0.00 90 1016.4
20260905032957 67 119 5.0 8.0 0.00 0.00 0.00 90 1016.4
20260905032922 67 113 4.0 8.0 0.00 0.00 0.00 90 1016.4
20260905032806 67 113 5.0 8.0 0.00 0.00 0.00 90 1016.4
20260905032711 67 116 6.0 8.0 0.00 0.00 0.00 90 1016.4
20260905032556 68 109 5.0 8.0 0.00 0.00 0.00 90 1016.5
20260905032501 68 113 4.0 8.0 0.00 0.00 0.00 90 1016.4
20260905032409 68 111 4.0 8.0 0.00 0.00 0.00 89 1016.4
20260905032314 68 105 5.0 8.0 0.00 0.00 0.00 89 1016.5
20260905032219 68 117 5.0 8.0 0.00 0.00 0.00 89 1016.4
20260905032057 68 110 5.0 8.0 0.00 0.00 0.00 89 1016.4
20260905032001 68 112 5.0 8.0 0.00 0.00 0.00 89 1016.4
20260905031906 68 87 5.0 8.0 0.00 0.00 0.00 89 1016.4
20260905031815 68 102 5.0 8.0 0.00 0.00 0.00 89 1016.4
20260905031720 68 98 5.0 8.0 0.00 0.00 0.00 89 1016.4
20260905031557 68 92 5.0 8.0 0.00 0.00 0.00 89 1016.3
20260905031521 68 98 5.0 9.0 0.00 0.00 0.00 89 1016.3
20260905031359 68 117 4.0 9.0 0.00 0.00 0.00 89 1016.3
20260905031304 68 105 4.0 9.0 0.00 0.00 0.00 89 1016.3
20260905031228 68 110 4.0 9.0 0.00 0.00 0.00 89 1016.4
20260905031056 68 115 4.0 9.0 0.00 0.00 0.00 89 1016.4
20260905031022 68 125 4.0 9.0 0.00 0.00 0.00 89 1016.4
20260905030859 69 109 6.0 9.0 0.00 0.00 0.00 89 1016.3
20260905030804 69 113 6.0 9.0 0.00 0.00 0.00 88 1016.3
20260905030729 69 130 4.0 9.0 0.00 0.00 0.00 88 1016.3
20260905030632 69 117 3.0 9.0 0.00 0.00 0.00 88 1016.3
20260905030456 69 121 3.0 9.0 0.00 0.00 0.00 88 1016.3
20260905030405 69 122 4.0 9.0 0.00 0.00 0.00 88 1016.3
20260905030308 69 130 6.0 9.0 0.00 0.00 0.00 88 1016.3
20260905030213 69 111 5.0 11.0 0.00 0.00 0.00 88 1016.3
20260905030058 69 111 5.0 11.0 0.00 0.00 0.00 88 1016.4
20260905030004 69 103 6.0 11.0 0.00 0.00 0.00 88 1016.3
20260905025908 69 127 5.0 11.0 0.00 0.00 0.00 88 1016.3
20260905025757 69 137 5.0 11.0 0.00 0.00 0.00 88 1016.3
20260905025721 69 135 6.0 11.0 0.00 0.00 0.00 88 1016.3
20260905025600 69 102 5.0 11.0 0.00 0.00 0.00 88 1016.3
20260905025504 69 132 7.0 11.0 0.00 0.00 0.00 88 1016.2
20260905025429 69 137 6.0 11.0 0.00 0.00 0.00 88 1016.2
20260905025313 69 120 6.0 9.0 0.00 0.00 0.00 88 1016.2
20260905025222 69 117 6.0 9.0 0.00 0.00 0.00 88 1016.2
20260905025059 69 130 5.0 9.0 0.00 0.00 0.00 88 1016.2
20260905025003 69 107 5.0 9.0 0.00 0.00 0.00 88 1016.3
20260905024908 69 86 5.0 9.0 0.00 0.00 0.00 88 1016.2
20260905024831 69 109 5.0 9.0 0.00 0.00 0.00 88 1016.2
20260905024715 69 115 6.0 9.0 0.00 0.00 0.00 88 1016.2
20260905024620 69 107 6.0 8.0 0.00 0.00 0.00 88 1016.2
20260905024528 69 128 5.0 10.0 0.00 0.00 0.00 87 1016.2
20260905024412 70 138 5.0 10.0 0.00 0.00 0.00 88 1016.2
20260905024314 70 116 5.0 10.0 0.00 0.00 0.00 88 1016.2
20260905024219 70 116 6.0 10.0 0.00 0.00 0.00 88 1016.3
20260905024057 70 98 5.0 10.0 0.00 0.00 0.00 88 1016.2
20260905024022 70 125 5.0 10.0 0.00 0.00 0.00 88 1016.2
20260905023906 70 111 5.0 10.0 0.00 0.00 0.00 88 1016.2
20260905023830 70 115 7.0 10.0 0.00 0.00 0.00 88 1016.2
20260905023718 70 114 7.0 10.0 0.00 0.00 0.00 88 1016.2
20260905023603 70 130 6.0 10.0 0.00 0.00 0.00 87 1016.1
20260905023507 70 127 6.0 10.0 0.00 0.00 0.00 87 1016.2
20260905023411 70 115 6.0 10.0 0.00 0.00 0.00 87 1016.2
20260905023336 70 113 6.0 9.0 0.00 0.00 0.00 87 1016.2
20260905023220 70 121 6.0 9.0 0.00 0.00 0.00 87 1016.2
20260905023104 70 118 6.0 9.0 0.00 0.00 0.00 87 1016.1
20260905023013 70 107 6.0 9.0 0.00 0.00 0.00 87 1016.1
20260905022917 70 110 5.0 9.0 0.00 0.00 0.00 87 1016.1
20260905022842 70 116 6.0 10.0 0.00 0.00 0.00 87 1016.0
20260905022659 70 110 6.0 10.0 0.00 0.00 0.00 87 1016.0
20260905022603 70 95 5.0 10.0 0.00 0.00 0.00 87 1016.0
20260905022508 70 116 6.0 10.0 0.00 0.00 0.00 86 1016.0
20260905022357 70 113 6.0 10.0 0.00 0.00 0.00 86 1016.0
20260905022321 70 115 6.0 10.0 0.00 0.00 0.00 86 1016.0
20260905022159 70 117 6.0 10.0 0.00 0.00 0.00 86 1016.0
20260905022104 70 105 6.0 10.0 0.00 0.00 0.00 86 1016.0
20260905022009 71 119 6.0 10.0 0.00 0.00 0.00 86 1016.0
20260905021933 71 108 6.0 9.0 0.00 0.00 0.00 86 1016.0
20260905021802 71 112 6.0 8.0 0.00 0.00 0.00 86 1016.0
20260905021705 71 108 6.0 11.0 0.00 0.00 0.00 86 1016.0
20260905021630 71 109 6.0 11.0 0.00 0.00 0.00 86 1016.0
20260905021514 71 113 5.0 11.0 0.00 0.00 0.00 86 1016.0
20260905021358 71 122 5.0 11.0 0.00 0.00 0.00 86 1016.0
20260905021322 71 134 6.0 11.0 0.00 0.00 0.00 85 1016.0
20260905021159 71 105 6.0 11.0 0.00 0.00 0.00 86 1016.0
20260905021107 71 119 6.0 11.0 0.00 0.00 0.00 85 1016.0
20260905021012 71 117 7.0 12.0 0.00 0.00 0.00 85 1016.0
20260905020915 71 117 7.0 12.0 0.00 0.00 0.00 85 1015.9
20260905020819 71 102 6.0 12.0 0.00 0.00 0.00 85 1016.0
20260905020657 71 137 6.0 12.0 0.00 0.00 0.00 85 1015.9
20260905020602 71 111 7.0 12.0 0.00 0.00 0.00 85 1015.9
20260905020531 71 110 8.0 12.0 0.00 0.00 0.00 85 1015.9
20260905020415 71 115 7.0 12.0 0.00 0.00 0.00 85 1015.9
20260905020320 71 108 8.0 12.0 0.00 0.00 0.00 85 1015.9
20260905020158 71 119 9.0 12.0 0.00 0.00 0.00 85 1015.9
20260905020007 72 109 7.0 10.0 0.00 0.00 0.00 85 1015.9
20260905015915 72 114 8.0 10.0 0.00 0.00 0.00 85 1015.9
20260905015800 72 135 7.0 9.0 0.00 0.00 0.00 85 1015.8
20260905015725 72 102 7.0 11.0 0.00 0.00 0.00 84 1015.8
20260905015609 72 113 6.0 11.0 0.00 0.00 0.00 84 1015.8
20260905015514 72 116 6.0 11.0 0.00 0.00 0.00 84 1015.8
20260905015400 72 117 6.0 11.0 0.00 0.00 0.00 84 1015.8
20260905015308 72 96 5.0 11.0 0.00 0.00 0.00 84 1015.8
20260905015213 72 115 5.0 11.0 0.00 0.00 0.00 84 1015.8
20260905015118 72 114 5.0 11.0 0.00 0.00 0.00 84 1015.8
20260905015022 72 115 7.0 11.0 0.00 0.00 0.00 84 1015.7
20260905014906 72 123 8.0 11.0 0.00 0.00 0.00 84 1015.7
20260905014811 72 115 8.0 11.0 0.00 0.00 0.00 84 1015.7
20260905014736 72 123 8.0 11.0 0.00 0.00 0.00 84 1015.8
20260905014604 72 122 8.0 12.0 0.00 0.00 0.00 84 1015.7
20260905014509 72 117 8.0 13.0 0.00 0.00 0.00 84 1015.7
20260905014430 72 105 8.0 13.0 0.00 0.00 0.00 84 1015.6
20260905014314 72 107 8.0 13.0 0.00 0.00 0.00 84 1015.7
20260905014220 72 144 9.0 13.0 0.00 0.00 0.00 84 1015.6
20260905014057 72 108 8.0 13.0 0.00 0.00 0.00 84 1015.6
20260905014002 72 125 8.0 13.0 0.00 0.00 0.00 84 1015.6
20260905013910 73 117 8.0 13.0 0.00 0.00 0.00 84 1015.6
20260905013815 73 103 9.0 13.0 0.00 0.00 0.00 84 1015.6
20260905013700 73 100 8.0 13.0 0.00 0.00 0.00 83 1015.6
20260905013625 73 102 6.0 9.0 0.00 0.00 0.00 83 1015.6
20260905013508 73 114 6.0 9.0 0.00 0.00 0.00 83 1015.5
20260905013432 73 90 6.0 10.0 0.00 0.00 0.00 83 1015.5
20260905013300 73 80 5.0 11.0 0.00 0.00 0.00 83 1015.5
20260905013205 73 90 6.0 11.0 0.00 0.00 0.00 83 1015.4
20260905013108 73 92 6.0 11.0 0.00 0.00 0.00 83 1015.4
20260905013014 73 96 6.0 11.0 0.00 0.00 0.00 83 1015.4
20260905012858 73 94 6.0 11.0 0.00 0.00 0.00 83 1015.4
20260905012803 73 113 6.0 11.0 0.00 0.00 0.00 83 1015.4
20260905012710 73 84 7.0 11.0 0.00 0.00 0.00 83 1015.4
20260905012615 73 121 8.0 11.0 0.00 0.00 0.00 82 1015.4
20260905012521 73 96 8.0 11.0 0.00 0.00 0.00 82 1015.4
20260905012358 74 107 7.0 10.0 0.00 0.00 0.00 82 1015.4
20260905012323 74 116 6.0 10.0 0.00 0.00 0.00 82 1015.3
20260905012207 74 108 7.0 10.0 0.00 0.00 0.00 82 1015.4
20260905012132 74 111 7.0 10.0 0.00 0.00 0.00 82 1015.4
20260905012000 74 110 7.0 10.0 0.00 0.00 0.00 82 1015.3
20260905011905 74 103 7.0 10.0 0.00 0.00 0.00 82 1015.3
20260905011811 74 79 5.0 10.0 0.00 0.00 0.00 82 1015.3
20260905011735 74 91 4.0 8.0 0.00 0.00 0.00 82 1015.3
20260905011558 74 84 4.0 8.0 0.00 0.00 0.00 82 1015.2
20260905011503 74 105 4.0 9.0 0.00 0.00 0.00 81 1015.2
20260905011411 74 78 5.0 9.0 0.00 0.00 0.00 81 1015.2
20260905011316 74 104 5.0 9.0 0.00 0.00 0.00 81 1015.2
20260905011241 74 97 5.0 9.0 0.00 0.00 0.00 81 1015.1
20260905011057 75 82 5.0 9.0 0.00 0.00 0.00 80 1015.1
20260905011002 75 97 5.0 10.0 0.00 0.00 0.00 80 1015.1
20260905010905 75 107 5.0 10.0 0.00 0.00 0.00 80 1015.1
20260905010810 75 116 6.0 10.0 0.00 0.00 0.00 80 1015.1
20260905010719 75 98 6.0 10.0 0.00 0.00 0.00 80 1015.1
20260905010623 75 107 5.0 10.0 0.00 0.00 0.00 80 1015.0
20260905010526 75 105 6.0 11.0 0.00 0.00 0.00 80 1015.0
20260905010410 75 108 6.0 12.0 0.00 0.00 0.00 80 1015.0
20260905010335 75 106 7.0 12.0 0.00 0.00 0.00 80 1015.0
20260905010218 75 117 7.0 12.0 0.00 0.00 0.00 80 1015.0
20260905010143 75 112 7.0 12.0 0.00 0.00 0.00 80 1015.0
20260905005959 75 116 7.0 12.0 0.00 0.00 0.00 79 1014.9
20260905005905 75 117 7.0 12.0 0.00 0.00 0.00 80 1015.0
20260905005809 75 113 7.0 12.0 0.00 0.00 0.00 80 1015.0
20260905005714 75 113 8.0 12.0 0.00 0.00 0.00 80 1014.9
20260905005619 75 103 7.0 12.0 0.00 0.00 0.00 79 1014.9
20260905005522 76 103 7.0 12.0 0.00 0.00 0.00 79 1014.9
20260905005406 76 121 8.0 12.0 0.00 0.00 0.00 79 1014.9
20260905005311 76 77 8.0 11.0 0.00 0.00 0.00 79 1014.9
20260905005200 76 111 7.0 10.0 0.00 0.00 0.00 79 1014.9
20260905005105 76 98 6.0 10.0 0.00 0.00 0.00 79 1015.0
20260905005010 76 98 6.0 10.0 0.00 0.00 0.00 79 1015.0
20260905004914 76 103 6.0 10.0 0.00 0.00 0.00 79 1014.9
20260905004819 76 84 6.0 10.0 0.00 0.00 0.00 79 1014.9
20260905004703 76 119 6.0 10.0 0.00 0.00 0.00 79 1014.9
20260905004612 76 91 6.0 10.0 0.00 0.00 0.00 79 1014.9
20260905004456 76 100 7.0 10.0 0.00 0.00 0.00 79 1014.9
20260905004401 77 94 6.0 11.0 0.00 0.00 0.00 79 1014.9
20260905004305 77 103 5.0 13.0 0.00 0.00 0.00 78 1014.8
20260905004210 77 95 6.0 13.0 0.00 0.00 0.00 78 1014.8
20260905004115 77 91 6.0 13.0 0.00 0.00 0.00 78 1014.8
20260905004004 77 91 6.0 13.0 0.00 0.00 0.00 78 1014.9
20260905003909 77 110 6.0 13.0 0.00 0.00 0.00 77 1014.9
20260905003814 77 111 7.0 13.0 0.00 0.00 0.00 77 1014.9
20260905003658 77 94 8.0 13.0 0.00 0.00 0.00 77 1014.9
20260905003603 77 103 9.0 13.0 0.00 0.00 0.00 77 1014.9
20260905003508 77 111 8.0 13.0 0.00 0.00 0.00 77 1014.9
20260905003357 77 88 7.0 11.0 0.00 0.00 0.00 77 1014.8
20260905003302 77 87 7.0 11.0 0.00 0.00 0.00 77 1014.9
20260905003206 78 66 7.0 11.0 0.00 0.00 0.00 77 1014.9
20260905003110 78 90 7.0 11.0 0.00 0.00 0.00 77 1014.9
20260905003015 78 98 8.0 11.0 0.00 0.00 0.00 77 1014.8
20260905002900 78 107 8.0 11.0 0.00 0.00 0.00 77 1014.8
20260905002829 78 105 7.0 11.0 0.00 0.00 0.00 77 1014.8
20260905002712 78 101 7.0 11.0 0.00 0.00 0.00 77 1014.8
20260905002556 78 108 7.0 11.0 0.00 0.00 0.00 77 1014.8
20260905002501 78 96 7.0 11.0 0.00 0.00 0.00 77 1014.7
20260905002406 78 95 7.0 11.0 0.00 0.00 0.00 77 1014.7
20260905002310 78 93 7.0 12.0 0.00 0.00 0.00 77 1014.7
20260905002219 79 91 7.0 12.0 0.00 0.00 0.00 77 1014.7
20260905002057 79 93 7.0 12.0 0.00 0.00 0.00 77 1014.6
20260905002022 79 93 8.0 12.0 0.00 0.00 0.00 76 1014.6
20260905001858 79 94 9.0 12.0 0.00 0.00 0.00 76 1014.6
20260905001803 79 94 9.0 12.0 0.00 0.00 0.00 76 1014.6
20260905001707 79 88 8.0 12.0 0.00 0.00 0.00 76 1014.5
20260905001614 79 100 8.0 12.0 0.00 0.00 0.00 76 1014.5
20260905001519 79 101 8.0 12.0 0.00 0.00 0.00 76 1014.5
20260905001357 79 87 8.0 12.0 0.00 0.00 0.00 76 1014.5
20260905001322 79 116 9.0 12.0 0.00 0.00 0.00 75 1014.5
20260905001205 80 87 8.0 12.0 0.00 0.00 0.00 76 1014.5
20260905001130 80 101 6.0 12.0 0.00 0.00 0.00 76 1014.5
20260905001014 80 80 7.0 12.0 0.00 0.00 0.00 75 1014.5
20260905000902 80 92 8.0 12.0 0.00 0.00 0.00 75 1014.5
20260905000808 80 101 7.0 12.0 0.00 0.00 0.00 75 1014.4
20260905000711 80 91 7.0 12.0 0.00 0.00 0.00 75 1014.4
20260905000556 80 86 9.0 12.0 0.00 0.00 0.00 75 1014.4
20260905000501 80 90 9.0 12.0 0.00 0.00 0.00 75 1014.4
20260905000406 80 92 9.0 12.0 0.00 0.00 0.00 75 1014.4
20260905000315 81 98 9.0 12.0 0.00 0.00 0.00 74 1014.4
20260905000219 81 105 7.0 12.0 0.00 0.00 0.00 75 1014.4
20260905000057 81 98 6.0 10.0 0.00 0.00 0.00 74 1014.4
20260905000002 81 104 5.0 10.0 0.00 0.00 0.00 74 1014.4
20260904235907 81 96 4.0 10.0 0.00 0.00 0.00 74 1014.4
20260904235811 81 117 5.0 10.0 0.00 0.00 0.00 74 1014.4
20260904235740 81 92 6.0 11.0 0.00 0.00 0.00 74 1014.3
20260904235557 81 103 6.0 11.0 0.00 0.00 0.00 73 1014.3
20260904235502 81 109 7.0 11.0 0.00 0.00 0.00 73 1014.3
20260904235427 81 114 7.0 11.0 0.00 0.00 0.00 73 1014.3
20260904235311 81 102 6.0 11.0 0.00 0.00 0.00 73 1014.3
20260904235236 81 101 6.0 11.0 0.00 0.00 0.00 73 1014.3
20260904235121 81 109 7.0 11.0 0.00 0.00 0.00 73 1014.3
20260904235025 81 96 8.0 11.0 0.00 0.00 0.00 73 1014.3
20260904234913 81 85 7.0 11.0 0.00 0.00 0.00 73 1014.3
20260904234818 82 98 6.0 9.0 0.00 0.00 0.00 73 1014.2
20260904234702 82 127 7.0 9.0 0.00 0.00 0.00 73 1014.3
20260904234606 82 101 7.0 10.0 0.00 0.00 0.00 73 1014.3
20260904234510 82 100 7.0 10.0 0.00 0.00 0.00 73 1014.3
20260904234415 82 92 6.0 11.0 0.00 0.00 0.00 73 1014.2
20260904234304 82 105 7.0 11.0 0.00 0.00 0.00 72 1014.3
20260904234209 82 126 7.0 11.0 0.00 0.00 0.00 73 1014.3
20260904234112 82 80 7.0 11.0 0.00 0.00 0.00 73 1014.3
20260904233956 82 93 7.0 11.0 0.00 0.00 0.00 72 1014.3
20260904233901 82 95 8.0 11.0 0.00 0.00 0.00 72 1014.3
20260904233806 82 125 8.0 11.0 0.00 0.00 0.00 72 1014.3
20260904233715 82 117 9.0 11.0 0.00 0.00 0.00 72 1014.3
20260904233600 82 117 8.0 12.0 0.00 0.00 0.00 72 1014.3
20260904233524 82 112 6.0 12.0 0.00 0.00 0.00 72 1014.3
20260904233408 82 122 6.0 13.0 0.00 0.00 0.00 72 1014.3
20260904233313 82 101 7.0 13.0 0.00 0.00 0.00 72 1014.4
20260904233157 82 111 7.0 13.0 0.00 0.00 0.00 72 1014.3
20260904233105 82 109 8.0 13.0 0.00 0.00 0.00 72 1014.4
20260904233010 82 92 9.0 13.0 0.00 0.00 0.00 72 1014.4
20260904232935 82 86 9.0 13.0 0.00 0.00 0.00 72 1014.3
20260904232819 82 86 8.0 13.0 0.00 0.00 0.00 72 1014.3
20260904232656 82 72 9.0 13.0 0.00 0.00 0.00 72 1014.3
20260904232621 82 107 9.0 13.0 0.00 0.00 0.00 72 1014.2
20260904232505 82 80 8.0 12.0 0.00 0.00 0.00 72 1014.2
20260904232414 82 90 9.0 12.0 0.00 0.00 0.00 72 1014.2
20260904232259 82 82 10.0 12.0 0.00 0.00 0.00 71 1014.2
20260904232204 82 109 9.0 12.0 0.00 0.00 0.00 72 1014.1
20260904232109 82 88 8.0 12.0 0.00 0.00 0.00 72 1014.1
20260904232034 82 103 8.0 12.0 0.00 0.00 0.00 71 1014.2
20260904231858 82 92 9.0 12.0 0.00 0.00 0.00 71 1014.2
20260904231807 82 88 9.0 12.0 0.00 0.00 0.00 71 1014.3
20260904231711 82 84 8.0 12.0 0.00 0.00 0.00 71 1014.3
20260904231615 83 112 9.0 12.0 0.00 0.00 0.00 71 1014.3
20260904231500 83 89 10.0 12.0 0.00 0.00 0.00 71 1014.2
20260904231425 83 91 9.0 12.0 0.00 0.00 0.00 71 1014.2
20260904231309 83 93 8.0 12.0 0.00 0.00 0.00 71 1014.2
20260904231158 83 95 8.0 12.0 0.00 0.00 0.00 71 1014.3
20260904231103 83 71 9.0 12.0 0.00 0.00 0.00 71 1014.2
20260904231008 83 96 8.0 12.0 0.00 0.00 0.00 71 1014.2
20260904230913 83 94 7.0 12.0 0.00 0.00 0.00 71 1014.2
20260904230758 83 78 8.0 12.0 0.00 0.00 0.00 71 1014.2
20260904230703 83 42 9.0 12.0 0.00 0.00 0.00 71 1014.2
20260904230612 83 96 9.0 12.0 0.00 0.00 0.00 71 1014.2
20260904230517 83 84 9.0 13.0 0.00 0.00 0.00 70 1014.1
20260904230421 83 90 10.0 13.0 0.00 0.00 0.00 71 1014.1
20260904230305 83 92 10.0 13.0 0.00 0.00 0.00 70 1014.1
20260904230230 83 90 8.0 13.0 0.00 0.00 0.00 71 1014.1
20260904230112 83 90 7.0 13.0 0.00 0.00 0.00 71 1014.1
20260904230018 83 82 7.0 13.0 0.00 0.00 0.00 71 1014.2
20260904225901 83 88 8.0 13.0 0.00 0.00 0.00 71 1014.2
20260904225810 83 111 9.0 13.0 0.00 0.00 0.00 71 1014.2
20260904225715 83 94 8.0 13.0 0.00 0.00 0.00 70 1014.2
20260904225600 83 115 8.0 12.0 0.00 0.00 0.00 70 1014.2
20260904225505 83 121 8.0 12.0 0.00 0.00 0.00 71 1014.2
20260904225410 83 84 8.0 12.0 0.00 0.00 0.00 70 1014.2
20260904225300 83 94 8.0 12.0 0.00 0.00 0.00 70 1014.3
20260904225204 83 103 8.0 12.0 0.00 0.00 0.00 70 1014.2
20260904225109 83 117 8.0 12.0 0.00 0.00 0.00 70 1014.2
20260904225014 83 86 8.0 12.0 0.00 0.00 0.00 70 1014.3
20260904224919 83 84 8.0 12.0 0.00 0.00 0.00 70 1014.2
20260904224802 83 99 9.0 12.0 0.00 0.00 0.00 70 1014.2
20260904224708 83 90 8.0 12.0 0.00 0.00 0.00 70 1014.1
20260904224615 83 91 7.0 12.0 0.00 0.00 0.00 70 1014.1
20260904224500 83 92 8.0 12.0 0.00 0.00 0.00 70 1014.2
20260904224425 83 101 8.0 12.0 0.00 0.00 0.00 70 1014.2
20260904224308 84 96 7.0 12.0 0.00 0.00 0.00 70 1014.2
20260904224213 84 98 7.0 12.0 0.00 0.00 0.00 70 1014.2
20260904224058 84 117 7.0 12.0 0.00 0.00 0.00 70 1014.3
20260904224007 84 95 7.0 12.0 0.00 0.00 0.00 70 1014.2
20260904223911 84 119 9.0 12.0 0.00 0.00 0.00 70 1014.2
20260904223835 84 104 9.0 12.0 0.00 0.00 0.00 70 1014.3
20260904223719 84 115 6.0 11.0 0.00 0.00 0.00 70 1014.2
20260904223602 84 123 6.0 11.0 0.00 0.00 0.00 70 1014.1
20260904223507 84 113 8.0 11.0 0.00 0.00 0.00 70 1014.1
20260904223412 84 103 8.0 11.0 0.00 0.00 0.00 70 1014.1
20260904223300 84 81 8.0 11.0 0.00 0.00 0.00 70 1014.1
20260904223225 84 76 9.0 11.0 0.00 0.00 0.00 70 1014.1
20260904223109 84 94 7.0 12.0 0.00 0.00 0.00 70 1014.1
20260904223034 84 65 7.0 12.0 0.00 0.00 0.00 69 1014.1
20260904222857 84 108 8.0 12.0 0.00 0.00 0.00 70 1014.0
20260904222802 84 87 7.0 12.0 0.00 0.00 0.00 70 1014.0
20260904222707 84 92 7.0 12.0 0.00 0.00 0.00 70 1014.1
20260904222557 84 107 7.0 12.0 0.00 0.00 0.00 70 1014.0
20260904222500 84 113 7.0 12.0 0.00 0.00 0.00 70 1014.0
20260904222425 84 91 8.0 12.0 0.00 0.00 0.00 70 1013.9
20260904222309 84 104 10.0 12.0 0.00 0.00 0.00 70 1013.9
20260904222234 84 115 9.0 12.0 0.00 0.00 0.00 70 1014.0
20260904222058 84 129 7.0 11.0 0.00 0.00 0.00 70 1014.0
20260904222006 84 119 6.0 11.0 0.00 0.00 0.00 70 1014.0
20260904221910 84 101 5.0 11.0 0.00 0.00 0.00 70 1014.0
20260904221815 84 135 5.0 11.0 0.00 0.00 0.00 71 1014.0
20260904221700 84 117 6.0 11.0 0.00 0.00 0.00 70 1013.9
20260904221625 84 132 8.0 11.0 0.00 0.00 0.00 70 1013.9
20260904221529 84 92 8.0 11.0 0.00 0.00 0.00 71 1013.9
20260904221413 84 97 7.0 13.0 0.00 0.00 0.00 71 1013.9
20260904221302 84 84 6.0 13.0 0.00 0.00 0.00 71 1013.8
20260904221206 84 105 6.0 13.0 0.00 0.00 0.00 71 1013.8
20260904221130 84 99 6.0 13.0 0.00 0.00 0.00 71 1013.8
20260904221014 84 126 7.0 13.0 0.00 0.00 0.00 71 1013.8
20260904220859 84 103 9.0 13.0 0.00 0.00 0.00 71 1013.8
20260904220803 84 114 7.0 13.0 0.00 0.00 0.00 71 1013.8
20260904220708 84 106 7.0 13.0 0.00 0.00 0.00 71 1013.8
20260904220557 84 99 9.0 13.0 0.00 0.00 0.00 71 1013.8
20260904220501 84 119 7.0 11.0 0.00 0.00 0.00 71 1013.7
20260904220425 84 103 5.0 11.0 0.00 0.00 0.00 71 1013.7
20260904220329 84 127 5.0 11.0 0.00 0.00 0.00 70 1013.7
20260904220232 84 107 7.0 11.0 0.00 0.00 0.00 71 1013.7
20260904220056 84 109 5.0 11.0 0.00 0.00 0.00 71 1013.7
20260904220001 84 114 6.0 11.0 0.00 0.00 0.00 71 1013.7
20260904215910 84 87 7.0 11.0 0.00 0.00 0.00 71 1013.7
20260904215815 84 111 6.0 11.0 0.00 0.00 0.00 71 1013.8
20260904215700 84 139 6.0 11.0 0.00 0.00 0.00 71 1013.7
20260904215605 84 113 7.0 11.0 0.00 0.00 0.00 71 1013.7
20260904215510 84 107 8.0 11.0 0.00 0.00 0.00 71 1013.7
20260904215434 84 121 8.0 11.0 0.00 0.00 0.00 71 1013.7
20260904215305 84 106 7.0 11.0 0.00 0.00 0.00 71 1013.6
20260904215206 84 92 5.0 11.0 0.00 0.00 0.00 72 1013.6
20260904215131 84 51 5.0 11.0 0.00 0.00 0.00 72 1013.6
20260904215015 84 53 5.0 11.0 0.00 0.00 0.00 72 1013.6
20260904214900 84 90 6.0 11.0 0.00 0.00 0.00 71 1013.6
20260904214805 84 83 7.0 11.0 0.00 0.00 0.00 71 1013.7
20260904214710 84 86 7.0 11.0 0.00 0.00 0.00 72 1013.7
20260904214616 84 95 6.0 11.0 0.00 0.00 0.00 71 1013.7
20260904214520 84 107 5.0 11.0 0.00 0.00 0.00 72 1013.7
20260904214424 84 105 7.0 11.0 0.00 0.00 0.00 71 1013.6
20260904214308 84 86 8.0 11.0 0.00 0.00 0.00 71 1013.6
20260904214213 84 96 8.0 11.0 0.00 0.00 0.00 71 1013.6
20260904214118 84 98 7.0 11.0 0.00 0.00 0.00 71 1013.7
20260904214022 84 86 5.0 11.0 0.00 0.00 0.00 71 1013.7
20260904213910 84 109 5.0 11.0 0.00 0.00 0.00 71 1013.7
20260904213815 84 115 6.0 11.0 0.00 0.00 0.00 71 1013.7
20260904213720 84 121 7.0 11.0 0.00 0.00 0.00 71 1013.6
20260904213604 84 98 8.0 11.0 0.00 0.00 0.00 71 1013.6
20260904213509 84 94 7.0 10.0 0.00 0.00 0.00 71 1013.6
20260904213414 84 103 6.0 10.0 0.00 0.00 0.00 71 1013.6
20260904213303 84 88 7.0 10.0 0.00 0.00 0.00 71 1013.6
20260904213206 84 98 7.0 10.0 0.00 0.00 0.00 71 1013.7
20260904213111 84 121 6.0 10.0 0.00 0.00 0.00 70 1013.7
20260904213035 84 117 7.0 10.0 0.00 0.00 0.00 71 1013.6
20260904212859 84 153 7.0 10.0 0.00 0.00 0.00 71 1013.7
20260904212804 84 99 7.0 10.0 0.00 0.00 0.00 71 1013.7
20260904212728 84 105 7.0 9.0 0.00 0.00 0.00 71 1013.6
20260904212632 84 115 6.0 9.0 0.00 0.00 0.00 71 1013.6
20260904212520 84 104 6.0 11.0 0.00 0.00 0.00 71 1013.6
20260904212404 84 95 5.0 11.0 0.00 0.00 0.00 71 1013.7
20260904212329 84 130 5.0 11.0 0.00 0.00 0.00 70 1013.7
20260904212213 84 115 5.0 11.0 0.00 0.00 0.00 71 1013.7
20260904212058 84 120 4.0 11.0 0.00 0.00 0.00 71 1013.7
20260904212002 84 118 5.0 11.0 0.00 0.00 0.00 71 1013.8
20260904211906 84 136 6.0 11.0 0.00 0.00 0.00 71 1013.8
20260904211814 83 130 7.0 11.0 0.00 0.00 0.00 71 1013.8
20260904211659 83 111 6.0 11.0 0.00 0.00 0.00 71 1013.8
20260904211603 83 113 5.0 10.0 0.00 0.00 0.00 72 1013.8
20260904211506 83 85 5.0 11.0 0.00 0.00 0.00 71 1013.8
20260904211411 83 120 6.0 11.0 0.00 0.00 0.00 71 1013.8
20260904211259 83 107 6.0 11.0 0.00 0.00 0.00 71 1013.8
20260904211204 83 83 5.0 11.0 0.00 0.00 0.00 71 1013.8
20260904211127 83 91 6.0 11.0 0.00 0.00 0.00 71 1013.8
20260904211011 83 91 7.0 11.0 0.00 0.00 0.00 71 1013.8
20260904210915 83 109 7.0 11.0 0.00 0.00 0.00 71 1013.8
20260904210800 83 105 8.0 11.0 0.00 0.00 0.00 71 1013.8
20260904210705 83 105 8.0 11.0 0.00 0.00 0.00 71 1013.7
20260904210634 83 57 7.0 11.0 0.00 0.00 0.00 71 1013.7
20260904210457 83 84 5.0 11.0 0.00 0.00 0.00 71 1013.8
20260904210421 83 84 5.0 11.0 0.00 0.00 0.00 72 1013.8
20260904210258 83 115 5.0 11.0 0.00 0.00 0.00 72 1013.8
20260904210203 83 96 6.0 11.0 0.00 0.00 0.00 71 1013.8
20260904210107 83 72 6.0 12.0 0.00 0.00 0.00 72 1013.9
20260904210015 83 115 5.0 12.0 0.00 0.00 0.00 72 1013.9
20260904205900 83 79 7.0 12.0 0.00 0.00 0.00 71 1013.8
20260904205805 83 84 7.0 12.0 0.00 0.00 0.00 71 1013.8
20260904205710 83 109 6.0 12.0 0.00 0.00 0.00 72 1013.8
20260904205615 83 79 6.0 12.0 0.00 0.00 0.00 72 1013.8
20260904205500 83 87 6.0 12.0 0.00 0.00 0.00 72 1013.8
20260904205407 83 100 8.0 14.0 0.00 0.00 0.00 71 1013.8
20260904205332 83 105 8.0 14.0 0.00 0.00 0.00 71 1013.8
20260904205215 83 115 7.0 14.0 0.00 0.00 0.00 72 1013.8
20260904205101 83 92 7.0 14.0 0.00 0.00 0.00 71 1013.9
20260904205005 83 116 6.0 14.0 0.00 0.00 0.00 71 1013.9
20260904204930 83 117 6.0 14.0 0.00 0.00 0.00 71 1013.9
20260904204758 83 163 8.0 14.0 0.00 0.00 0.00 70 1013.9
20260904204723 83 119 8.0 14.0 0.00 0.00 0.00 71 1013.8
20260904204626 83 107 8.0 14.0 0.00 0.00 0.00 72 1013.8
20260904204510 83 135 8.0 14.0 0.00 0.00 0.00 72 1013.8
20260904204415 83 110 10.0 14.0 0.00 0.00 0.00 72 1013.8
20260904204300 83 105 9.0 14.0 0.00 0.00 0.00 72 1013.7
20260904204224 83 105 8.0 14.0 0.00 0.00 0.00 72 1013.8
20260904204108 83 84 9.0 14.0 0.00 0.00 0.00 72 1013.7
20260904203956 83 90 9.0 14.0 0.00 0.00 0.00 72 1013.7
20260904203901 83 85 8.0 14.0 0.00 0.00 0.00 72 1013.7
20260904203805 83 69 8.0 14.0 0.00 0.00 0.00 73 1013.7
20260904203710 83 86 8.0 14.0 0.00 0.00 0.00 73 1013.7
20260904203614 83 119 8.0 14.0 0.00 0.00 0.00 74 1013.7
20260904203503 83 94 7.0 14.0 0.00 0.00 0.00 74 1013.7
20260904203408 83 90 8.0 14.0 0.00 0.00 0.00 74 1013.7
20260904203313 83 91 9.0 14.0 0.00 0.00 0.00 74 1013.8
20260904203158 82 105 7.0 14.0 0.00 0.00 0.00 75 1013.8
20260904203123 82 87 5.0 9.0 0.00 0.00 0.00 75 1013.7
20260904203028 82 157 6.0 11.0 0.00 0.00 0.00 75 1013.7
20260904202911 83 140 7.0 11.0 0.00 0.00 0.00 75 1013.7
20260904202759 83 92 7.0 11.0 0.00 0.00 0.00 75 1013.7
20260904202724 83 116 6.0 11.0 0.00 0.00 0.00 75 1013.7
20260904202608 82 117 6.0 11.0 0.00 0.00 0.00 74 1013.7
20260904202533 82 113 6.0 11.0 0.00 0.00 0.00 75 1013.7
20260904202417 83 123 6.0 11.0 0.00 0.00 0.00 76 1013.7
20260904202300 82 84 7.0 11.0 0.00 0.00 0.00 75 1013.6
20260904202204 82 80 9.0 11.0 0.00 0.00 0.00 75 1013.7
20260904202108 82 89 8.0 11.0 0.00 0.00 0.00 74 1013.6
20260904202016 82 109 8.0 11.0 0.00 0.00 0.00 74 1013.6
20260904201939 82 98 8.0 11.0 0.00 0.00 0.00 75 1013.7
20260904201756 82 117 4.0 11.0 0.00 0.00 0.00 76 1013.7
20260904201701 82 83 5.0 11.0 0.00 0.00 0.00 76 1013.6
20260904201626 82 93 6.0 11.0 0.00 0.00 0.00 76 1013.7
20260904201510 82 106 4.0 10.0 0.00 0.00 0.00 77 1013.7
20260904201358 82 123 3.0 13.0 0.00 0.00 0.00 76 1013.7
20260904201303 82 124 3.0 13.0 0.00 0.00 0.00 76 1013.8
20260904201207 82 130 5.0 13.0 0.00 0.00 0.00 75 1013.8
20260904201112 82 133 6.0 13.0 0.00 0.00 0.00 75 1013.8
20260904201017 82 131 7.0 13.0 0.00 0.00 0.00 76 1013.8
20260904200901 82 111 7.0 13.0 0.00 0.00 0.00 76 1013.8
20260904200805 82 121 5.0 13.0 0.00 0.00 0.00 77 1013.7
20260904200714 82 95 6.0 13.0 0.00 0.00 0.00 78 1013.7
20260904200619 82 146 8.0 13.0 0.00 0.00 0.00 77 1013.7
20260904200503 82 103 7.0 11.0 0.00 0.00 0.00 77 1013.8
20260904200408 82 130 7.0 11.0 0.00 0.00 0.00 78 1013.8
20260904200312 82 93 6.0 11.0 0.00 0.00 0.00 78 1013.8
20260904200157 82 113 3.0 11.0 0.00 0.00 0.00 80 1013.8
20260904200105 82 121 3.0 15.0 0.00 0.00 0.00 79 1013.7
20260904200030 81 123 5.0 15.0 0.00 0.00 0.00 79 1013.7
20260904195914 81 121 6.0 15.0 0.00 0.00 0.00 79 1013.8
20260904195759 81 103 6.0 15.0 0.00 0.00 0.00 79 1013.7
20260904195704 81 121 7.0 15.0 0.00 0.00 0.00 79 1013.7
20260904195628 81 117 6.0 15.0 0.00 0.00 0.00 79 1013.7
20260904195456 81 108 7.0 15.0 0.00 0.00 0.00 79 1013.8
20260904195421 81 103 9.0 15.0 0.00 0.00 0.00 79 1013.7
20260904195325 81 94 9.0 15.0 0.00 0.00 0.00 80 1013.7
20260904195209 81 98 7.0 13.0 0.00 0.00 0.00 80 1013.7
20260904195114 81 114 5.0 13.0 0.00 0.00 0.00 81 1013.7
20260904194959 81 138 5.0 11.0 0.00 0.00 0.00 80 1013.7
20260904194904 81 137 5.0 11.0 0.00 0.00 0.00 81 1013.7
20260904194829 81 155 2.0 10.0 0.00 0.00 0.00 82 1013.7
20260904194737 81 108 2.0 14.0 0.00 0.00 0.00 81 1013.7
20260904194639 81 94 3.0 14.0 0.00 0.00 0.00 82 1013.6
20260904194456 81 109 4.0 14.0 0.00 0.00 0.00 82 1013.7
20260904194401 81 112 5.0 14.0 0.00 0.00 0.00 82 1013.8
20260904194306 80 168 5.0 14.0 0.00 0.00 0.00 81 1013.7
20260904194211 80 165 6.0 14.0 0.00 0.00 0.00 81 1013.7
20260904194100 80 123 5.0 14.0 0.00 0.00 0.00 81 1013.8
20260904194004 80 157 6.0 14.0 0.00 0.00 0.00 81 1013.8
20260904193909 80 163 7.0 14.0 0.00 0.00 0.00 81 1013.8
20260904193813 80 187 6.0 11.0 0.00 0.00 0.00 81 1013.8
20260904193718 80 179 7.0 11.0 0.00 0.00 0.00 81 1013.9
20260904193643 80 141 7.0 11.0 0.00 0.00 0.00 81 1013.9
20260904193500 80 118 7.0 11.0 0.00 0.00 0.00 81 1013.9
20260904193409 80 109 7.0 11.0 0.00 0.00 0.00 82 1013.9
20260904193314 80 129 8.0 11.0 0.00 0.00 0.00 82 1013.9
20260904193218 80 108 7.0 10.0 0.00 0.00 0.00 82 1013.9
20260904193056 80 168 5.0 10.0 0.00 0.00 0.00 83 1013.9
20260904193021 80 140 6.0 10.0 0.00 0.00 0.00 82 1014.0
20260904192905 80 112 6.0 10.0 0.00 0.00 0.00 82 1014.0
20260904192813 80 140 6.0 10.0 0.00 0.00 0.00 82 1014.0
20260904192719 80 135 5.0 10.0 0.00 0.00 0.00 83 1014.0
20260904192556 80 117 5.0 10.0 0.00 0.00 0.00 82 1014.1
20260904192501 80 135 6.0 10.0 0.00 0.00 0.00 83 1014.0
20260904192406 79 112 5.0 10.0 0.00 0.00 0.00 82 1014.1
20260904192311 79 137 6.0 10.0 0.00 0.00 0.00 82 1014.1
20260904192159 79 114 6.0 10.0 0.00 0.00 0.00 82 1014.1
20260904192104 79 55 6.0 10.0 0.00 0.00 0.00 82 1014.0
20260904192008 79 126 6.0 9.0 0.00 0.00 0.00 82 1014.0
20260904191912 79 130 6.0 8.0 0.00 0.00 0.00 83 1014.1
20260904191757 79 160 6.0 8.0 0.00 0.00 0.00 83 1014.0
20260904191702 79 144 5.0 8.0 0.00 0.00 0.00 83 1014.0
20260904191611 79 125 6.0 9.0 0.00 0.00 0.00 83 1014.0
20260904191535 79 107 6.0 9.0 0.00 0.00 0.00 83 1014.0
20260904191419 79 155 4.0 9.0 0.00 0.00 0.00 84 1014.0
20260904191303 79 123 3.0 9.0 0.00 0.00 0.00 84 1013.9
20260904191227 79 144 4.0 9.0 0.00 0.00 0.00 83 1014.0
20260904191110 79 141 5.0 9.0 0.00 0.00 0.00 84 1014.0
20260904191014 79 148 5.0 9.0 0.00 0.00 0.00 84 1014.0
20260904190903 79 143 6.0 9.0 0.00 0.00 0.00 84 1014.0
20260904190807 78 90 7.0 9.0 0.00 0.00 0.00 84 1014.0
20260904190712 78 135 5.0 9.0 0.00 0.00 0.00 85 1013.9
20260904190617 78 115 3.0 9.0 0.00 0.00 0.00 86 1013.9
20260904190520 78 108 4.0 9.0 0.00 0.00 0.00 85 1013.9
20260904190424 78 90 5.0 9.0 0.00 0.00 0.00 85 1013.9
20260904190308 78 106 5.0 9.0 0.00 0.00 0.00 85 1013.9
20260904190232 78 123 5.0 9.0 0.00 0.00 0.00 85 1013.9
20260904190120 78 130 7.0 9.0 0.00 0.00 0.00 84 1013.9
20260904190024 78 115 5.0 9.0 0.00 0.00 0.00 85 1013.9
20260904185908 78 140 5.0 9.0 0.00 0.00 0.00 84 1013.9
20260904185833 78 169 5.0 9.0 0.00 0.00 0.00 84 1013.9
20260904185657 78 134 6.0 9.0 0.00 0.00 0.00 84 1014.0
20260904185601 78 132 6.0 9.0 0.00 0.00 0.00 84 1013.9
20260904185505 78 107 7.0 9.0 0.00 0.00 0.00 84 1014.0
20260904185414 78 117 6.0 9.0 0.00 0.00 0.00 85 1014.0
20260904185319 78 121 5.0 9.0 0.00 0.00 0.00 85 1014.0
20260904185156 77 115 6.0 9.0 0.00 0.00 0.00 85 1014.0
20260904185101 77 118 6.0 9.0 0.00 0.00 0.00 85 1014.0
20260904185006 77 126 6.0 12.0 0.00 0.00 0.00 84 1014.0
20260904184911 77 109 6.0 12.0 0.00 0.00 0.00 85 1014.0
20260904184759 77 107 5.0 12.0 0.00 0.00 0.00 85 1014.0
20260904184704 77 117 5.0 13.0 0.00 0.00 0.00 85 1014.0
20260904184628 77 130 6.0 13.0 0.00 0.00 0.00 85 1014.0
20260904184511 77 117 5.0 13.0 0.00 0.00 0.00 86 1014.0
20260904184416 77 124 5.0 13.0 0.00 0.00 0.00 85 1014.0
20260904184320 77 106 7.0 13.0 0.00 0.00 0.00 85 1014.1
20260904184158 77 105 9.0 13.0 0.00 0.00 0.00 85 1014.1
20260904184123 77 113 9.0 13.0 0.00 0.00 0.00 85 1014.1
20260904184010 77 103 8.0 13.0 0.00 0.00 0.00 85 1014.1
20260904183915 77 138 8.0 13.0 0.00 0.00 0.00 85 1014.1
20260904183818 77 119 8.0 12.0 0.00 0.00 0.00 85 1014.1
20260904183656 77 121 8.0 12.0 0.00 0.00 0.00 85 1014.1
20260904183601 77 116 6.0 9.0 0.00 0.00 0.00 85 1014.1
20260904183506 77 95 5.0 9.0 0.00 0.00 0.00 85 1014.1
20260904183415 77 132 5.0 9.0 0.00 0.00 0.00 84 1014.1
20260904183319 77 130 4.0 8.0 0.00 0.00 0.00 85 1014.1
20260904183156 77 126 5.0 8.0 0.00 0.00 0.00 85 1014.1
20260904183101 77 90 5.0 9.0 0.00 0.00 0.00 86 1014.1
20260904183005 76 98 4.0 9.0 0.00 0.00 0.00 86 1014.1
20260904182910 76 86 3.0 9.0 0.00 0.00 0.00 86 1014.1
20260904182759 76 123 3.0 9.0 0.00 0.00 0.00 86 1014.1
20260904182723 76 123 2.0 9.0 0.00 0.00 0.00 86 1014.1
20260904182600 76 132 2.0 9.0 0.00 0.00 0.00 85 1014.1
20260904182505 76 132 4.0 10.0 0.00 0.00 0.00 84 1014.0
20260904182410 76 132 6.0 10.0 0.00 0.00 0.00 84 1014.0
20260904182259 76 124 7.0 10.0 0.00 0.00 0.00 85 1014.1
20260904182203 76 114 6.0 10.0 0.00 0.00 0.00 86 1014.1
20260904182108 76 136 6.0 10.0 0.00 0.00 0.00 86 1014.1
20260904182012 76 93 6.0 10.0 0.00 0.00 0.00 86 1014.1
20260904181857 76 96 6.0 10.0 0.00 0.00 0.00 87 1014.1
20260904181821 76 84 6.0 10.0 0.00 0.00 0.00 87 1014.1
20260904181704 76 78 7.0 10.0 0.00 0.00 0.00 87 1014.1
20260904181612 76 70 6.0 10.0 0.00 0.00 0.00 87 1014.1
20260904181457 75 63 5.0 10.0 0.00 0.00 0.00 87 1014.1
20260904181420 75 149 5.0 10.0 0.00 0.00 0.00 87 1014.1
20260904181258 75 101 8.0 10.0 0.00 0.00 0.00 87 1014.1
20260904181203 75 87 6.0 10.0 0.00 0.00 0.00 88 1014.1
20260904181108 75 102 5.0 10.0 0.00 0.00 0.00 88 1014.1
20260904180957 75 84 4.0 10.0 0.00 0.00 0.00 87 1014.1
20260904180901 75 96 6.0 10.0 0.00 0.00 0.00 87 1014.1
20260904180806 75 111 7.0 10.0 0.00 0.00 0.00 87 1014.2
20260904180709 75 105 6.0 10.0 0.00 0.00 0.00 87 1014.1
20260904180611 75 106 5.0 10.0 0.00 0.00 0.00 88 1014.1
20260904180500 74 110 3.0 10.0 0.00 0.00 0.00 88 1014.2
20260904180403 74 133 4.0 10.0 0.00 0.00 0.00 88 1014.1
20260904180308 74 82 5.0 10.0 0.00 0.00 0.00 88 1014.1
20260904180233 74 88 6.0 10.0 0.00 0.00 0.00 89 1014.1
20260904180116 74 88 6.0 13.0 0.00 0.00 0.00 88 1014.1
20260904180041 74 118 6.0 13.0 0.00 0.00 0.00 89 1014.2
20260904175858 74 102 6.0 13.0 0.00 0.00 0.00 89 1014.3
20260904175807 74 107 7.0 13.0 0.00 0.00 0.00 89 1014.3
20260904175712 74 99 6.0 13.0 0.00 0.00 0.00 89 1014.2
20260904175616 73 107 6.0 13.0 0.00 0.00 0.00 89 1014.1
20260904175541 73 113 7.0 13.0 0.00 0.00 0.00 89 1014.3
20260904175358 73 94 9.0 13.0 0.00 0.00 0.00 89 1014.3
20260904175301 73 93 8.0 13.0 0.00 0.00 0.00 90 1014.3
20260904175205 73 111 8.0 12.0 0.00 0.00 0.00 89 1014.3
20260904175113 73 106 9.0 12.0 0.00 0.00 0.00 89 1014.3
20260904175018 73 107 9.0 12.0 0.00 0.00 0.00 89 1014.3
20260904174856 73 115 9.0 13.0 0.00 0.00 0.00 89 1014.3
20260904174801 73 116 8.0 13.0 0.00 0.00 0.00 89 1014.3
20260904174726 73 124 8.0 13.0 0.00 0.00 0.00 89 1014.3
20260904174610 73 121 8.0 13.0 0.00 0.00 0.00 90 1014.3
20260904174518 73 146 8.0 13.0 0.00 0.00 0.00 90 1014.2
20260904174356 73 121 8.0 13.0 0.00 0.00 0.00 90 1014.2
20260904174320 73 125 9.0 13.0 0.00 0.00 0.00 89 1014.2
20260904174158 73 93 10.0 13.0 0.00 0.00 0.00 89 1014.3
20260904174103 73 128 9.0 13.0 0.00 0.00 0.00 89 1014.3
20260904174028 73 141 8.0 13.0 0.00 0.00 0.00 89 1014.3
20260904173856 74 144 8.0 13.0 0.00 0.00 0.00 89 1014.3
20260904173759 74 128 9.0 13.0 0.00 0.00 0.00 90 1014.3
20260904173703 74 102 9.0 13.0 0.00 0.00 0.00 90 1014.3
20260904173608 74 115 9.0 13.0 0.00 0.00 0.00 90 1014.3
20260904173513 74 114 8.0 13.0 0.00 0.00 0.00 90 1014.3
20260904173418 74 98 8.0 13.0 0.00 0.00 0.00 90 1014.2
20260904173322 74 92 10.0 13.0 0.00 0.00 0.00 90 1014.3
20260904173209 74 85 10.0 13.0 0.00 0.00 0.00 90 1014.3
20260904173114 74 103 10.0 12.0 0.00 0.00 0.00 90 1014.2
20260904173018 74 113 8.0 12.0 0.00 0.00 0.00 91 1014.1
20260904172856 73 104 7.0 12.0 0.00 0.00 0.00 91 1014.2
20260904172821 73 128 7.0 12.0 0.00 0.00 0.00 91 1014.1
20260904172705 73 117 7.0 14.0 0.00 0.00 0.00 92 1014.1
20260904172630 73 114 7.0 14.0 0.00 0.00 0.00 91 1014.1
20260904172517 73 87 7.0 14.0 0.00 0.00 0.00 92 1014.1
20260904172420 73 93 7.0 14.0 0.00 0.00 0.00 91 1014.1
20260904172257 73 92 8.0 15.0 0.00 0.00 0.00 92 1014.0
20260904172202 73 107 9.0 15.0 0.00 0.00 0.00 92 1014.1
20260904172127 73 89 9.0 15.0 0.00 0.00 0.00 92 1014.0
20260904172011 73 46 10.0 15.0 0.00 0.00 0.00 91 1014.0
20260904171935 73 94 10.0 15.0 0.00 0.00 0.00 91 1014.1
20260904171819 73 90 11.0 15.0 0.00 0.00 0.00 91 1014.1
20260904171707 73 101 11.0 15.0 0.00 0.00 0.00 91 1014.1
20260904171612 73 88 11.0 15.0 0.00 0.00 0.00 91 1014.0
20260904171456 73 96 10.0 13.0 0.00 0.00 0.00 92 1014.0
20260904171401 73 76 10.0 13.0 0.00 0.00 0.00 91 1014.0
20260904171306 73 95 9.0 13.0 0.00 0.00 0.00 92 1014.0
20260904171211 73 105 10.0 13.0 0.00 0.00 0.00 92 1014.0
20260904171058 73 92 9.0 13.0 0.00 0.00 0.00 92 1014.0
20260904171003 73 107 9.0 11.0 0.00 0.00 0.00 92 1013.9
20260904170907 73 96 8.0 11.0 0.00 0.00 0.00 92 1013.9
20260904170812 74 90 8.0 11.0 0.00 0.00 0.00 93 1013.9
20260904170656 73 96 7.0 11.0 0.00 0.00 0.00 93 1013.8
20260904170621 73 111 7.0 11.0 0.00 0.00 0.00 93 1013.8
20260904170509 74 94 7.0 11.0 0.00 0.00 0.00 93 1013.8
20260904170433 74 117 7.0 10.0 0.00 0.00 0.00 93 1013.8
20260904170257 74 128 7.0 11.0 0.00 0.00 0.00 93 1013.8
20260904170202 74 131 7.0 11.0 0.00 0.00 0.00 93 1013.8
20260904170106 74 97 7.0 11.0 0.00 0.00 0.00 93 1013.9
20260904170031 73 105 6.0 11.0 0.00 0.00 0.00 93 1013.9
20260904165934 73 116 6.0 11.0 0.00 0.00 0.00 93 1013.8
20260904165822 73 126 6.0 11.0 0.00 0.00 0.00 93 1013.8
20260904165706 73 96 7.0 11.0 0.00 0.00 0.00 93 1013.8
20260904165611 73 124 8.0 11.0 0.00 0.00 0.00 93 1013.8
20260904165516 73 109 8.0 11.0 0.00 0.00 0.00 93 1013.8
20260904165440 73 113 8.0 12.0 0.00 0.00 0.00 94 1013.8
20260904165344 73 132 8.0 12.0 0.00 0.00 0.00 94 1013.8
20260904165200 73 111 7.0 12.0 0.00 0.00 0.00 94 1013.8
20260904165125 73 70 8.0 12.0 0.00 0.00 0.00 94 1013.8
20260904165033 73 117 8.0 12.0 0.00 0.00 0.00 94 1013.8
20260904164857 73 119 7.0 12.0 0.00 0.00 0.00 94 1013.8
20260904164822 73 111 8.0 12.0 0.00 0.00 0.00 94 1013.8
20260904164706 73 109 9.0 12.0 0.00 0.00 0.00 94 1013.8
20260904164611 73 101 8.0 12.0 0.00 0.00 0.00 94 1013.8
20260904164515 73 114 7.0 11.0 0.00 0.00 0.00 94 1013.8
20260904164404 73 79 7.0 11.0 0.00 0.00 0.00 94 1013.8
20260904164309 73 117 8.0 11.0 0.00 0.00 0.00 94 1013.8
20260904164214 73 106 9.0 11.0 0.00 0.00 0.00 94 1013.7
20260904164119 73 99 8.0 11.0 0.00 0.00 0.00 94 1013.8
20260904163956 73 108 7.0 11.0 0.00 0.00 0.00 94 1013.9
20260904163901 73 121 8.0 12.0 0.00 0.00 0.00 94 1013.9
20260904163810 73 101 8.0 12.0 0.00 0.00 0.00 94 1013.9
20260904163735 73 110 8.0 12.0 0.00 0.00 0.00 94 1013.9
20260904163559 73 104 8.0 12.0 0.00 0.00 0.00 94 1013.8
20260904163524 73 76 7.0 12.0 0.00 0.00 0.00 94 1013.7
20260904163408 73 96 7.0 12.0 0.00 0.00 0.00 94 1013.7
20260904163313 73 126 7.0 12.0 0.00 0.00 0.00 94 1013.8
20260904163217 73 119 8.0 12.0 0.00 0.00 0.00 94 1013.7
20260904163104 73 118 8.0 12.0 0.00 0.00 0.00 94 1013.6
20260904163029 74 134 8.0 12.0 0.00 0.00 0.00 95 1013.6
20260904162913 74 109 8.0 12.0 0.00 0.00 0.00 94 1013.6
20260904162818 74 93 8.0 12.0 0.00 0.00 0.00 95 1013.6
20260904162656 74 118 6.0 12.0 0.00 0.00 0.00 95 1013.7
20260904162601 74 100 5.0 10.0 0.00 0.00 0.00 95 1013.6
20260904162506 74 130 6.0 10.0 0.00 0.00 0.00 95 1013.7
20260904162415 74 102 5.0 10.0 0.00 0.00 0.00 95 1013.7
20260904162320 74 135 6.0 10.0 0.00 0.00 0.00 94 1013.6
20260904162157 74 127 8.0 10.0 0.00 0.00 0.00 95 1013.5
20260904162102 74 110 6.0 10.0 0.00 0.00 0.00 95 1013.5
20260904162005 74 93 6.0 11.0 0.00 0.00 0.00 95 1013.5
20260904161909 74 91 7.0 11.0 0.00 0.00 0.00 95 1013.5
20260904161818 74 105 8.0 12.0 0.00 0.00 0.00 95 1013.4
20260904161656 74 109 8.0 12.0 0.00 0.00 0.00 95 1013.4
20260904161559 74 103 8.0 12.0 0.00 0.00 0.00 95 1013.4
20260904161524 74 113 8.0 12.0 0.00 0.00 0.00 95 1013.3
20260904161407 74 130 7.0 12.0 0.00 0.00 0.00 95 1013.3
20260904161312 74 107 7.0 12.0 0.00 0.00 0.00 95 1013.2
20260904161220 74 115 7.0 12.0 0.00 0.00 0.00 95 1013.3
20260904161058 74 119 9.0 12.0 0.00 0.00 0.00 95 1013.2
20260904161002 74 99 8.0 12.0 0.00 0.00 0.00 95 1013.2
20260904160906 74 115 7.0 12.0 0.00 0.00 0.00 95 1013.3
20260904160810 74 113 7.0 10.0 0.00 0.00 0.00 95 1013.3
20260904160715 74 123 7.0 10.0 0.00 0.00 0.00 95 1013.3
20260904160603 74 114 7.0 10.0 0.00 0.00 0.00 95 1013.3
20260904160508 74 115 6.0 10.0 0.00 0.00 0.00 95 1013.3
20260904160433 74 108 6.0 10.0 0.00 0.00 0.00 95 1013.3
20260904160257 74 100 6.0 10.0 0.00 0.00 0.00 95 1013.3
20260904160222 74 115 6.0 10.0 0.00 0.00 0.00 95 1013.3
20260904160100 74 107 6.0 10.0 0.00 0.00 0.00 94 1013.3
20260904160009 74 110 6.0 10.0 0.00 0.00 0.00 94 1013.3
20260904155912 74 107 7.0 10.0 0.00 0.00 0.00 94 1013.4
20260904155756 74 88 7.0 10.0 0.00 0.00 0.00 94 1013.3
20260904155701 74 109 7.0 10.0 0.00 0.00 0.00 94 1013.3
20260904155606 74 105 6.0 10.0 0.00 0.00 0.00 94 1013.3
20260904155511 74 78 5.0 9.0 0.00 0.00 0.00 94 1013.3
20260904155400 74 95 5.0 9.0 0.00 0.00 0.00 94 1013.3
20260904155307 74 96 5.0 9.0 0.00 0.00 0.00 94 1013.3
20260904155209 74 56 6.0 9.0 0.00 0.00 0.00 94 1013.3
20260904155114 74 98 6.0 9.0 0.00 0.00 0.00 94 1013.3
20260904154959 74 109 6.0 9.0 0.00 0.00 0.00 94 1013.3
20260904154904 74 94 7.0 9.0 0.00 0.00 0.00 94 1013.2
20260904154812 74 86 7.0 9.0 0.00 0.00 0.00 94 1013.2
20260904154657 74 97 6.0 9.0 0.00 0.00 0.00 94 1013.2
20260904154622 74 81 5.0 9.0 0.00 0.00 0.00 94 1013.2
20260904154459 74 37 3.0 9.0 0.00 0.00 0.00 94 1013.2
20260904154404 74 99 3.0 9.0 0.00 0.00 0.00 94 1013.2
20260904154309 74 99 4.0 9.0 0.00 0.00 0.00 94 1013.2
20260904154158 74 94 4.0 9.0 0.00 0.00 0.00 94 1013.1
20260904154103 74 99 6.0 9.0 0.00 0.00 0.00 94 1013.1
20260904154007 74 96 7.0 9.0 0.00 0.00 0.00 94 1013.1
20260904153912 74 92 7.0 8.0 0.00 0.00 0.00 94 1013.1
20260904153757 74 111 6.0 9.0 0.00 0.00 0.00 94 1013.2
20260904153702 74 106 4.0 9.0 0.00 0.00 0.00 94 1013.2
20260904153611 74 133 4.0 9.0 0.00 0.00 0.00 94 1013.2
20260904153536 74 116 5.0 9.0 0.00 0.00 0.00 94 1013.1
20260904153419 74 102 6.0 9.0 0.00 0.00 0.00 94 1013.1
20260904153323 74 108 5.0 9.0 0.00 0.00 0.00 93 1013.0
20260904153207 74 104 6.0 9.0 0.00 0.00 0.00 93 1013.0
20260904153111 74 99 6.0 9.0 0.00 0.00 0.00 93 1013.0
20260904152956 74 97 7.0 9.0 0.00 0.00 0.00 93 1013.0
20260904152905 74 96 7.0 9.0 0.00 0.00 0.00 93 1013.0
20260904152807 74 93 6.0 9.0 0.00 0.00 0.00 93 1013.0
20260904152712 74 104 4.0 9.0 0.00 0.00 0.00 93 1013.0
20260904152617 74 98 4.0 9.0 0.00 0.00 0.00 93 1012.9
20260904152501 74 98 6.0 9.0 0.00 0.00 0.00 93 1013.0
20260904152426 74 106 6.0 9.0 0.00 0.00 0.00 93 1012.9
20260904152310 74 92 7.0 9.0 0.00 0.00 0.00 93 1012.9
20260904152158 74 99 6.0 9.0 0.00 0.00 0.00 93 1012.9
20260904152103 74 88 7.0 9.0 0.00 0.00 0.00 93 1012.8
20260904152007 74 103 7.0 9.0 0.00 0.00 0.00 93 1012.8
20260904151912 74 94 7.0 9.0 0.00 0.00 0.00 93 1012.9
20260904151757 74 94 7.0 9.0 0.00 0.00 0.00 93 1012.7
20260904151700 75 94 6.0 9.0 0.00 0.00 0.00 93 1012.7
20260904151609 75 115 6.0 9.0 0.00 0.00 0.00 93 1012.7
20260904151514 75 113 6.0 9.0 0.00 0.00 0.00 93 1012.7
20260904151359 75 109 5.0 9.0 0.00 0.00 0.00 93 1012.7
20260904151304 74 85 5.0 9.0 0.00 0.00 0.00 93 1012.7
20260904151228 74 115 5.0 9.0 0.00 0.00 0.00 93 1012.7
20260904151112 74 119 5.0 9.0 0.00 0.00 0.00 93 1012.7
20260904151001 74 93 5.0 8.0 0.00 0.00 0.00 93 1012.6
20260904150906 74 94 6.0 8.0 0.00 0.00 0.00 93 1012.7
20260904150810 74 93 5.0 8.0 0.00 0.00 0.00 93 1012.7
20260904150715 74 97 5.0 8.0 0.00 0.00 0.00 93 1012.6
20260904150619 74 122 5.0 8.0 0.00 0.00 0.00 94 1012.6
20260904150503 74 101 4.0 6.0 0.00 0.00 0.00 94 1012.6
20260904150412 74 119 5.0 6.0 0.00 0.00 0.00 94 1012.6
20260904150256 74 110 4.0 7.0 0.00 0.00 0.00 94 1012.6
20260904150221 74 111 3.0 7.0 0.00 0.00 0.00 94 1012.6
20260904150104 74 111 3.0 7.0 0.00 0.00 0.00 94 1012.6
20260904150009 74 111 3.0 7.0 0.00 0.00 0.00 94 1012.6
20260904145913 74 112 3.0 7.0 0.00 0.00 0.00 94 1012.6
20260904145818 74 112 3.0 7.0 0.00 0.00 0.00 94 1012.5
20260904145725 74 113 4.0 7.0 0.00 0.00 0.00 94 1012.6
20260904145609 74 113 4.0 7.0 0.00 0.00 0.00 94 1012.6
20260904145514 74 99 3.0 7.0 0.00 0.00 0.00 95 1012.5
20260904145358 74 111 3.0 4.0 0.00 0.00 0.00 95 1012.5
20260904145305 74 112 2.0 4.0 0.00 0.00 0.00 95 1012.6
20260904145207 74 112 2.0 4.0 0.00 0.00 0.00 95 1012.6
20260904145056 74 112 2.0 4.0 0.00 0.00 0.00 95 1012.5
20260904145001 74 136 1.0 4.0 0.00 0.00 0.00 95 1012.5
20260904144906 74 136 2.0 4.0 0.00 0.00 0.00 95 1012.5
20260904144830 74 136 2.0 4.0 0.00 0.00 0.00 95 1012.5
20260904144714 74 136 2.0 4.0 0.00 0.00 0.00 95 1012.5
20260904144559 74 136 3.0 4.0 0.00 0.00 0.00 95 1012.5
20260904144507 74 136 3.0 4.0 0.00 0.00 0.00 95 1012.5
20260904144412 74 137 2.0 4.0 0.00 0.00 0.00 95 1012.5
20260904144257 73 150 1.0 5.0 0.00 0.00 0.00 95 1012.4
20260904144202 73 150 1.0 5.0 0.00 0.00 0.00 95 1012.3
20260904144127 73 150 2.0 5.0 0.00 0.00 0.00 96 1012.3
20260904144011 73 150 2.0 5.0 0.00 0.00 0.00 95 1012.3
20260904143859 73 150 2.0 5.0 0.00 0.00 0.00 96 1012.4
20260904143803 73 198 1.0 5.0 0.00 0.00 0.00 96 1012.4
20260904143708 73 199 1.0 5.0 0.00 0.00 0.00 96 1012.4
20260904143613 73 199 1.0 5.0 0.00 0.00 0.00 96 1012.3
20260904143518 73 199 2.0 5.0 0.00 0.00 0.00 96 1012.3
20260904143401 73 199 3.0 5.0 0.00 0.00 0.00 96 1012.2
20260904143326 73 199 4.0 6.0 0.00 0.00 0.00 96 1012.2
20260904143209 73 199 4.0 6.0 0.00 0.00 0.00 96 1012.2
20260904143058 73 199 4.0 6.0 0.00 0.00 0.00 96 1012.2
20260904143003 73 207 4.0 6.0 0.00 0.00 0.00 96 1012.2
20260904142927 73 209 3.0 6.0 0.00 0.00 0.00 96 1012.2
20260904142811 73 209 3.0 6.0 0.00 0.00 0.00 96 1012.2
20260904142656 73 209 3.0 6.0 0.00 0.00 0.00 96 1012.2
20260904142600 73 203 4.0 6.0 0.00 0.00 0.00 96 1012.1
20260904142509 73 202 4.0 6.0 0.00 0.00 0.00 97 1012.1
20260904142414 73 195 4.0 6.0 0.00 0.00 0.00 97 1012.1
20260904142258 73 188 4.0 6.0 0.00 0.00 0.00 97 1012.0
20260904142204 72 188 4.0 6.0 0.00 0.00 0.00 97 1012.0
20260904142109 72 183 4.0 6.0 0.00 0.00 0.00 97 1012.0
20260904142034 72 186 4.0 6.0 0.00 0.00 0.00 97 1012.1
20260904141901 72 188 4.0 6.0 0.00 0.00 0.00 97 1012.0
20260904141805 72 185 4.0 6.0 0.00 0.00 0.00 97 1012.0
20260904141710 72 178 4.0 6.0 0.00 0.00 0.00 97 1012.0
20260904141615 72 173 4.0 5.0 0.00 0.00 0.00 97 1012.1
20260904141540 72 171 3.0 4.0 0.00 0.00 0.00 97 1012.0
20260904141443 72 171 3.0 6.0 0.00 0.00 0.00 97 1012.0
20260904141300 72 170 2.0 6.0 0.00 0.00 0.00 97 1012.0
20260904141209 72 171 2.0 6.0 0.00 0.00 0.00 97 1012.0
20260904141114 72 171 2.0 6.0 0.00 0.00 0.00 97 1012.0
20260904141019 72 171 4.0 6.0 0.00 0.00 0.00 97 1011.9
20260904140923 72 171 4.0 6.0 0.00 0.00 0.00 97 1011.9
20260904140806 72 167 4.0 6.0 0.00 0.00 0.00 97 1011.9
20260904140711 72 166 4.0 6.0 0.00 0.00 0.00 97 1011.9
20260904140615 72 165 2.0 5.0 0.00 0.00 0.00 97 1012.0
20260904140504 71 153 1.0 3.0 0.00 0.00 0.00 97 1012.0
20260904140409 71 153 1.0 3.0 0.00 0.00 0.00 97 1012.0
20260904140313 71 153 2.0 3.0 0.00 0.00 0.00 97 1012.1
20260904140159 71 153 1.0 3.0 0.00 0.00 0.00 97 1012.1
20260904140008 71 153 2.0 3.0 0.00 0.00 0.00 97 1012.1
20260904135856 71 153 2.0 3.0 0.00 0.00 0.00 97 1012.2
20260904135801 71 153 1.0 3.0 0.00 0.00 0.00 97 1012.1
20260904135706 71 153 2.0 3.0 0.00 0.00 0.00 97 1012.1
20260904135631 71 153 2.0 3.0 0.00 0.00 0.00 97 1012.1
20260904135535 70 153 2.0 3.0 0.00 0.00 0.00 97 1012.1
20260904135358 70 153 0.0 3.0 0.00 0.00 0.00 97 1012.1
20260904135306 70 90 0.0 2.0 0.00 0.00 0.00 97 1012.2
20260904135212 70 90 0.0 2.0 0.00 0.00 0.00 97 1012.2
20260904135057 70 90 0.0 2.0 0.00 0.00 0.00 97 1012.2
20260904135002 70 90 0.0 2.0 0.00 0.00 0.00 97 1012.2
20260904134907 70 90 0.0 2.0 0.00 0.00 0.00 97 1012.2
20260904134812 70 90 0.0 2.0 0.00 0.00 0.00 97 1012.1
20260904134717 70 90 1.0 2.0 0.00 0.00 0.00 97 1012.2
20260904134605 70 90 1.0 2.0 0.00 0.00 0.00 97 1012.1
20260904134509 70 90 1.0 2.0 0.00 0.00 0.00 97 1012.1
20260904134415 70 90 1.0 2.0 0.00 0.00 0.00 97 1012.1
20260904134320 70 90 0.0 2.0 0.00 0.00 0.00 97 1012.1
20260904134157 70 90 1.0 2.0 0.00 0.00 0.00 96 1012.1
20260904134101 70 90 1.0 2.0 0.00 0.00 0.00 96 1012.2
20260904134008 70 90 1.0 3.0 0.00 0.00 0.00 96 1012.2
20260904133934 69 90 1.0 3.0 0.00 0.00 0.00 96 1012.2
20260904133818 69 90 1.0 3.0 0.00 0.00 0.00 96 1012.1
20260904133702 69 90 0.0 3.0 0.00 0.00 0.00 96 1012.1
20260904133606 69 90 0.0 3.0 0.00 0.00 0.00 96 1012.2
20260904133511 69 90 1.0 3.0 0.00 0.00 0.00 96 1012.2
20260904133400 69 90 1.0 3.0 0.00 0.00 0.00 96 1012.2
20260904133305 69 90 2.0 4.0 0.00 0.00 0.00 96 1012.2
20260904133229 69 90 2.0 4.0 0.00 0.00 0.00 96 1012.2
20260904133113 69 90 2.0 4.0 0.00 0.00 0.00 96 1012.2
20260904133018 69 90 2.0 4.0 0.00 0.00 0.00 96 1012.2
20260904132922 69 90 2.0 4.0 0.00 0.00 0.00 96 1012.2
20260904132759 69 90 2.0 4.0 0.00 0.00 0.00 96 1012.3
20260904132709 69 90 2.0 5.0 0.00 0.00 0.00 96 1012.3
20260904132613 69 90 2.0 6.0 0.00 0.00 0.00 96 1012.2
20260904132517 69 90 2.0 6.0 0.00 0.00 0.00 96 1012.2
20260904132443 69 90 2.0 6.0 0.00 0.00 0.00 96 1012.3
20260904132300 69 74 2.0 6.0 0.00 0.00 0.00 96 1012.3
20260904132204 69 74 2.0 6.0 0.00 0.00 0.00 96 1012.3
20260904132109 69 74 2.0 6.0 0.00 0.00 0.00 96 1012.3
20260904132018 69 74 3.0 6.0 0.00 0.00 0.00 96 1012.2
20260904131902 69 74 4.0 6.0 0.00 0.00 0.00 96 1012.3
20260904131806 69 67 4.0 6.0 0.00 0.00 0.00 96 1012.3
20260904131711 70 86 3.0 6.0 0.00 0.00 0.00 96 1012.3
20260904131556 70 87 3.0 6.0 0.00 0.00 0.00 96 1012.2
20260904131500 70 88 4.0 6.0 0.00 0.00 0.00 96 1012.2
20260904131409 70 94 4.0 6.0 0.00 0.00 0.00 96 1012.2
20260904131314 70 94 3.0 7.0 0.00 0.00 0.00 96 1012.2
20260904131159 70 107 4.0 7.0 0.00 0.00 0.00 96 1012.1
20260904131103 70 108 3.0 7.0 0.00 0.00 0.00 96 1012.2
20260904131006 70 112 3.0 7.0 0.00 0.00 0.00 96 1012.1
20260904130930 70 110 4.0 7.0 0.00 0.00 0.00 96 1012.1
20260904130759 70 111 4.0 7.0 0.00 0.00 0.00 96 1012.1
20260904130703 70 115 4.0 7.0 0.00 0.00 0.00 96 1012.2
20260904130608 70 95 5.0 7.0 0.00 0.00 0.00 96 1012.2
20260904130513 70 101 5.0 7.0 0.00 0.00 0.00 96 1012.1
20260904130358 70 93 5.0 7.0 0.00 0.00 0.00 96 1012.1
20260904130303 70 95 5.0 7.0 0.00 0.00 0.00 96 1012.1
20260904130212 70 101 4.0 7.0 0.00 0.00 0.00 96 1012.1
20260904130057 70 93 3.0 6.0 0.00 0.00 0.00 96 1012.1
20260904130001 70 105 3.0 6.0 0.00 0.00 0.00 96 1012.1
20260904125906 70 105 3.0 8.0 0.00 0.00 0.00 96 1012.1
20260904125810 70 88 3.0 8.0 0.00 0.00 0.00 96 1012.1
20260904125659 70 94 3.0 8.0 0.00 0.00 0.00 96 1012.1
20260904125604 70 89 3.0 8.0 0.00 0.00 0.00 96 1012.1
20260904125509 70 86 2.0 8.0 0.00 0.00 0.00 96 1012.1
20260904125414 70 86 2.0 8.0 0.00 0.00 0.00 96 1012.1
20260904125319 70 85 3.0 8.0 0.00 0.00 0.00 96 1012.1
20260904125243 70 84 4.0 8.0 0.00 0.00 0.00 95 1012.1
20260904125059 70 82 5.0 8.0 0.00 0.00 0.00 95 1012.0
20260904125009 70 81 5.0 8.0 0.00 0.00 0.00 95 1012.0
20260904124914 70 60 4.0 8.0 0.00 0.00 0.00 95 1012.0
20260904124758 70 85 4.0 7.0 0.00 0.00 0.00 95 1011.9
20260904124702 70 85 3.0 7.0 0.00 0.00 0.00 95 1011.9
20260904124605 70 90 3.0 7.0 0.00 0.00 0.00 95 1011.9
20260904124508 70 77 4.0 7.0 0.00 0.00 0.00 95 1011.9
20260904124418 70 76 4.0 7.0 0.00 0.00 0.00 95 1011.9
20260904124343 70 65 3.0 6.0 0.00 0.00 0.00 95 1011.9
20260904124200 70 111 3.0 6.0 0.00 0.00 0.00 96 1011.9
20260904124125 70 112 3.0 6.0 0.00 0.00 0.00 96 1011.9
20260904124008 70 112 4.0 6.0 0.00 0.00 0.00 96 1011.9
20260904123914 70 113 4.0 6.0 0.00 0.00 0.00 96 1012.0
20260904123758 70 115 3.0 6.0 0.00 0.00 0.00 96 1011.8
20260904123705 70 119 2.0 4.0 0.00 0.00 0.00 96 1011.8
20260904123610 70 119 2.0 4.0 0.00 0.00 0.00 96 1011.8
20260904123515 70 120 2.0 4.0 0.00 0.00 0.00 96 1011.7
20260904123420 70 120 2.0 4.0 0.00 0.00 0.00 96 1011.7
20260904123303 70 120 2.0 4.0 0.00 0.00 0.00 96 1011.6
20260904123208 70 119 2.0 4.0 0.00 0.00 0.00 95 1011.6
20260904123056 70 119 3.0 4.0 0.00 0.00 0.00 96 1011.7
20260904123001 70 119 3.0 4.0 0.00 0.00 0.00 96 1011.6
20260904122905 70 119 3.0 4.0 0.00 0.00 0.00 96 1011.7
20260904122810 70 119 3.0 4.0 0.00 0.00 0.00 95 1011.7
20260904122713 70 119 3.0 4.0 0.00 0.00 0.00 95 1011.7
20260904122558 70 120 3.0 4.0 0.00 0.00 0.00 96 1011.5
20260904122503 70 119 3.0 6.0 0.00 0.00 0.00 96 1011.6
20260904122411 70 121 3.0 6.0 0.00 0.00 0.00 96 1011.6
20260904122256 70 121 3.0 6.0 0.00 0.00 0.00 96 1011.5
20260904122221 70 121 3.0 6.0 0.00 0.00 0.00 96 1011.5
20260904122059 70 124 3.0 6.0 0.00 0.00 0.00 96 1011.4
20260904122004 70 125 3.0 6.0 0.00 0.00 0.00 96 1011.4
20260904121908 70 123 3.0 6.0 0.00 0.00 0.00 96 1011.4
20260904121757 70 123 4.0 6.0 0.00 0.00 0.00 96 1011.4
20260904121721 70 120 3.0 6.0 0.00 0.00 0.00 96 1011.4
20260904121600 70 127 3.0 5.0 0.00 0.00 0.00 96 1011.4
20260904121505 70 128 3.0 5.0 0.00 0.00 0.00 96 1011.4
20260904121409 70 128 3.0 5.0 0.00 0.00 0.00 96 1011.4
20260904121258 70 134 2.0 5.0 0.00 0.00 0.00 96 1011.3
20260904121202 70 134 2.0 5.0 0.00 0.00 0.00 96 1011.4
20260904121108 70 135 2.0 5.0 0.00 0.00 0.00 96 1011.4
20260904121013 70 135 3.0 5.0 0.00 0.00 0.00 96 1011.3
20260904120858 70 135 3.0 5.0 0.00 0.00 0.00 96 1011.4
20260904120802 70 136 2.0 4.0 0.00 0.00 0.00 96 1011.4
20260904120711 70 136 2.0 4.0 0.00 0.00 0.00 96 1011.4
20260904120636 70 136 2.0 4.0 0.00 0.00 0.00 96 1011.4
20260904120519 70 136 3.0 4.0 0.00 0.00 0.00 96 1011.4
20260904120356 70 138 3.0 4.0 0.00 0.00 0.00 96 1011.3
20260904120301 70 138 2.0 4.0 0.00 0.00 0.00 96 1011.4
20260904120226 70 138 2.0 4.0 0.00 0.00 0.00 96 1011.3
20260904120110 70 138 3.0 4.0 0.00 0.00 0.00 96 1011.3
20260904120017 70 138 3.0 4.0 0.00 0.00 0.00 96 1011.4
20260904115856 70 139 3.0 4.0 0.00 0.00 0.00 96 1011.3
20260904115821 70 139 3.0 4.0 0.00 0.00 0.00 96 1011.3
20260904115658 70 143 2.0 3.0 0.00 0.00 0.00 96 1011.3
20260904115603 70 143 2.0 3.0 0.00 0.00 0.00 96 1011.3
20260904115507 70 143 2.0 3.0 0.00 0.00 0.00 96 1011.2
20260904115415 70 143 2.0 3.0 0.00 0.00 0.00 96 1011.2
20260904115259 70 143 2.0 3.0 0.00 0.00 0.00 96 1011.2
20260904115205 70 143 1.0 3.0 0.00 0.00 0.00 96 1011.2
20260904115110 70 143 1.0 2.0 0.00 0.00 0.00 96 1011.2
20260904115014 70 143 1.0 2.0 0.00 0.00 0.00 96 1011.2
20260904114920 70 143 1.0 4.0 0.00 0.00 0.00 96 1011.2
20260904114807 70 143 0.0 4.0 0.00 0.00 0.00 96 1011.2
20260904114711 70 143 1.0 4.0 0.00 0.00 0.00 96 1011.1
20260904114556 70 143 1.0 4.0 0.00 0.00 0.00 96 1011.1
20260904114521 70 143 1.0 4.0 0.00 0.00 0.00 96 1011.1
20260904114359 70 143 1.0 4.0 0.00 0.00 0.00 96 1011.2
20260904114303 70 143 2.0 4.0 0.00 0.00 0.00 96 1011.1
20260904114227 70 143 3.0 4.0 0.00 0.00 0.00 96 1011.1
20260904114115 70 143 3.0 6.0 0.00 0.00 0.00 96 1011.2
20260904114020 70 144 2.0 6.0 0.00 0.00 0.00 96 1011.1
20260904113924 70 145 1.0 6.0 0.00 0.00 0.00 96 1011.1
20260904113827 70 145 1.0 6.0 0.00 0.00 0.00 96 1011.1
20260904113712 70 145 1.0 6.0 0.00 0.00 0.00 96 1011.1
20260904113617 70 145 2.0 6.0 0.00 0.00 0.00 96 1011.1
20260904113521 70 145 2.0 6.0 0.00 0.00 0.00 96 1011.1
20260904113405 70 145 3.0 6.0 0.00 0.00 0.00 96 1011.0
20260904113314 70 145 3.0 6.0 0.00 0.00 0.00 96 1011.0
20260904113239 70 157 3.0 5.0 0.00 0.00 0.00 96 1011.0
20260904113055 70 158 2.0 5.0 0.00 0.00 0.00 96 1010.9
20260904113021 70 158 2.0 5.0 0.00 0.00 0.00 96 1010.9
20260904112858 70 159 2.0 5.0 0.00 0.00 0.00 96 1010.9
20260904112803 70 159 2.0 5.0 0.00 0.00 0.00 96 1010.9
20260904112707 70 158 2.0 5.0 0.00 0.00 0.00 96 1010.9
20260904112557 70 158 2.0 5.0 0.00 0.00 0.00 96 1011.0
20260904112502 70 158 3.0 5.0 0.00 0.00 0.00 96 1011.0
20260904112403 70 157 3.0 5.0 0.00 0.00 0.00 96 1010.9
20260904112309 70 146 2.0 5.0 0.00 0.00 0.00 96 1010.9
20260904112214 70 137 2.0 4.0 0.00 0.00 0.00 96 1010.9
20260904112103 70 137 2.0 4.0 0.00 0.00 0.00 96 1011.0
20260904112008 70 136 2.0 4.0 0.00 0.00 0.00 96 1011.0
20260904111912 70 136 2.0 4.0 0.00 0.00 0.00 96 1010.9
20260904111756 70 136 2.0 4.0 0.00 0.00 0.00 96 1010.9
20260904111701 70 136 2.0 4.0 0.00 0.00 0.00 96 1010.9
20260904111606 70 136 2.0 4.0 0.00 0.00 0.00 96 1010.9
20260904111510 70 133 2.0 4.0 0.00 0.00 0.00 96 1010.9
20260904111359 70 133 2.0 4.0 0.00 0.00 0.00 96 1011.0
20260904111304 70 133 2.0 4.0 0.00 0.00 0.00 96 1010.9
20260904111208 70 128 2.0 4.0 0.00 0.00 0.00 96 1010.9
20260904111113 70 127 1.0 4.0 0.00 0.00 0.00 96 1010.9
20260904110958 70 126 2.0 4.0 0.00 0.00 0.00 96 1011.0
20260904110906 70 126 2.0 4.0 0.00 0.00 0.00 96 1011.0
20260904110810 70 126 2.0 5.0 0.00 0.00 0.00 96 1011.0
20260904110714 70 127 2.0 5.0 0.00 0.00 0.00 96 1011.1
20260904110619 70 126 1.0 5.0 0.00 0.00 0.00 96 1011.0
20260904110457 70 126 0.0 5.0 0.00 0.00 0.00 96 1011.0
20260904110421 70 126 0.0 5.0 0.00 0.00 0.00 96 1011.0
20260904110259 70 126 1.0 5.0 0.00 0.00 0.00 96 1011.0
20260904110208 70 126 3.0 5.0 0.00 0.00 0.00 96 1011.0
20260904110113 70 126 4.0 7.0 0.00 0.00 0.00 96 1011.1
20260904105958 70 126 4.0 7.0 0.00 0.00 0.00 96 1011.1
20260904105902 70 113 4.0 7.0 0.00 0.00 0.00 96 1011.2
20260904105807 70 138 3.0 7.0 0.00 0.00 0.00 96 1011.2
20260904105656 70 146 2.0 7.0 0.00 0.00 0.00 96 1011.1
20260904105601 70 148 2.0 7.0 0.00 0.00 0.00 96 1011.1
20260904105505 70 148 2.0 7.0 0.00 0.00 0.00 96 1011.1
20260904105410 70 152 3.0 7.0 0.00 0.00 0.00 96 1011.1
20260904105315 70 153 4.0 7.0 0.00 0.00 0.00 96 1011.1
20260904105220 70 132 3.0 5.0 0.00 0.00 0.00 96 1011.1
20260904105104 70 134 3.0 5.0 0.00 0.00 0.00 96 1011.1
20260904105012 70 132 3.0 5.0 0.00 0.00 0.00 96 1011.1
20260904104915 70 132 3.0 7.0 0.00 0.00 0.00 96 1011.1
20260904104800 70 134 3.0 9.0 0.00 0.00 0.00 96 1011.0
20260904104705 70 131 3.0 9.0 0.00 0.00 0.00 96 1011.0
20260904104610 70 143 2.0 9.0 0.00 0.00 0.00 96 1011.0
20260904104515 70 107 1.0 9.0 0.00 0.00 0.00 96 1011.0
20260904104403 70 107 2.0 9.0 0.00 0.00 0.00 96 1011.1
20260904104308 70 107 3.0 9.0 0.00 0.00 0.00 96 1011.1
20260904104213 70 106 4.0 9.0 0.00 0.00 0.00 96 1011.1
20260904104118 70 128 6.0 9.0 0.00 0.00 0.00 96 1011.1
20260904104001 70 120 5.0 11.0 0.00 0.00 0.00 96 1011.1
20260904103925 70 117 4.0 11.0 0.00 0.00 0.00 96 1011.1
20260904103829 70 119 3.0 11.0 0.00 0.00 0.00 96 1011.1
20260904103717 71 112 3.0 11.0 0.00 0.00 0.00 96 1011.1
20260904103642 71 136 3.0 11.0 0.00 0.00 0.00 96 1011.0
20260904103458 71 135 4.0 11.0 0.00 0.00 0.00 96 1011.1
20260904103404 71 139 6.0 11.0 0.00 0.00 0.00 96 1011.1
20260904103329 71 108 6.0 12.0 0.00 0.00 0.00 96 1011.1
20260904103212 71 141 5.0 12.0 0.00 0.00 0.00 96 1011.1
20260904103058 71 122 4.0 12.0 0.00 0.00 0.00 96 1011.1
20260904103007 71 127 4.0 12.0 0.00 0.00 0.00 96 1011.1
20260904102911 71 115 4.0 12.0 0.00 0.00 0.00 96 1011.1
20260904102836 71 108 4.0 12.0 0.00 0.00 0.00 96 1011.1
20260904102719 71 117 5.0 12.0 0.00 0.00 0.00 96 1011.1
20260904102556 71 110 7.0 12.0 0.00 0.00 0.00 96 1011.2
20260904102501 71 113 5.0 12.0 0.00 0.00 0.00 96 1011.1
20260904102425 71 109 4.0 7.0 0.00 0.00 0.00 96 1011.1
20260904102313 71 143 4.0 7.0 0.00 0.00 0.00 96 1011.1
20260904102238 71 144 4.0 7.0 0.00 0.00 0.00 96 1011.0
20260904102142 71 169 4.0 7.0 0.00 0.00 0.00 96 1011.0
20260904101959 71 136 4.0 7.0 0.00 0.00 0.00 96 1011.0
20260904101903 72 160 4.0 7.0 0.00 0.00 0.00 96 1011.0
20260904101809 72 185 4.0 7.0 0.00 0.00 0.00 96 1011.0
20260904101657 72 127 4.0 7.0 0.00 0.00 0.00 96 1011.0
20260904101601 72 126 4.0 8.0 0.00 0.00 0.00 96 1011.0
20260904101506 72 121 4.0 8.0 0.00 0.00 0.00 96 1011.0
20260904101430 72 130 3.0 8.0 0.00 0.00 0.00 96 1010.9
20260904101334 72 132 3.0 8.0 0.00 0.00 0.00 96 1011.0
20260904101219 72 157 3.0 8.0 0.00 0.00 0.00 96 1010.9
20260904101056 72 157 2.0 8.0 0.00 0.00 0.00 96 1010.9
20260904101004 72 157 4.0 8.0 0.00 0.00 0.00 96 1010.9
20260904100909 72 116 5.0 8.0 0.00 0.00 0.00 96 1010.9
20260904100813 72 131 6.0 8.0 0.00 0.00 0.00 96 1011.0
20260904100658 72 103 6.0 8.0 0.00 0.00 0.00 96 1011.0
20260904100603 72 119 5.0 8.0 0.00 0.00 0.00 96 1011.0
20260904100507 72 117 3.0 7.0 0.00 0.00 0.00 96 1011.0
20260904100412 72 133 3.0 8.0 0.00 0.00 0.00 96 1010.9
20260904100322 72 132 4.0 8.0 0.00 0.00 0.00 96 1011.0
20260904100159 72 121 3.0 8.0 0.00 0.00 0.00 96 1010.9
20260904100104 72 160 3.0 8.0 0.00 0.00 0.00 97 1010.9
20260904100008 72 163 3.0 8.0 0.00 0.00 0.00 97 1010.9
20260904095909 72 155 2.0 8.0 0.00 0.00 0.00 97 1010.9
20260904095834 72 151 2.0 8.0 0.00 0.00 0.00 97 1010.9
20260904095702 72 137 5.0 8.0 0.00 0.00 0.00 97 1011.0
20260904095606 72 136 6.0 8.0 0.00 0.00 0.00 97 1011.0
20260904095510 72 126 5.0 8.0 0.00 0.00 0.00 97 1011.0
20260904095436 72 124 5.0 8.0 0.00 0.00 0.00 97 1011.1
20260904095319 72 116 4.0 6.0 0.00 0.00 0.00 97 1011.1
20260904095157 72 133 3.0 6.0 0.00 0.00 0.00 97 1011.0
20260904095102 72 183 2.0 7.0 0.00 0.00 0.00 97 1010.9
20260904095010 72 184 3.0 7.0 0.00 0.00 0.00 97 1010.9
20260904094856 72 184 3.0 7.0 0.00 0.00 0.00 97 1010.8
20260904094821 72 183 3.0 7.0 0.00 0.00 0.00 97 1010.8
20260904094658 72 160 2.0 7.0 0.00 0.00 0.00 97 1010.9
20260904094603 72 117 2.0 7.0 0.00 0.00 0.00 97 1011.0
20260904094526 72 115 3.0 7.0 0.00 0.00 0.00 96 1011.1
20260904094413 72 116 4.0 7.0 0.00 0.00 0.00 96 1011.1
20260904094319 72 117 5.0 7.0 0.00 0.00 0.00 96 1011.1
20260904094156 72 107 4.0 7.0 0.00 0.00 0.00 97 1011.1
20260904094101 72 114 3.0 4.0 0.00 0.00 0.00 96 1011.0
20260904094007 72 110 2.0 4.0 0.00 0.00 0.00 96 1011.0
20260904093931 72 110 1.0 6.0 0.00 0.00 0.00 96 1011.0
20260904093759 72 110 1.0 6.0 0.00 0.00 0.00 96 1010.9
20260904093704 72 110 1.0 6.0 0.00 0.00 0.00 96 1010.9
20260904093609 72 110 1.0 6.0 0.00 0.00 0.00 96 1010.9
20260904093514 72 110 1.0 6.0 0.00 0.00 0.00 96 1010.9
20260904093357 72 110 2.0 6.0 0.00 0.00 0.00 96 1011.0
20260904093302 72 110 3.0 6.0 0.00 0.00 0.00 96 1011.1
20260904093207 72 110 4.0 6.0 0.00 0.00 0.00 96 1011.1
20260904093136 72 111 4.0 6.0 0.00 0.00 0.00 96 1011.1
20260904092959 72 113 3.0 6.0 0.00 0.00 0.00 96 1011.2
20260904092924 72 117 3.0 6.0 0.00 0.00 0.00 96 1011.1
20260904092808 72 108 3.0 6.0 0.00 0.00 0.00 96 1011.1
20260904092713 72 107 3.0 6.0 0.00 0.00 0.00 96 1011.1
20260904092557 72 107 2.0 4.0 0.00 0.00 0.00 96 1011.1
20260904092507 72 107 1.0 4.0 0.00 0.00 0.00 96 1011.1
20260904092432 72 107 1.0 6.0 0.00 0.00 0.00 96 1011.0
20260904092315 72 107 0.0 6.0 0.00 0.00 0.00 96 1011.0
20260904092240 72 107 0.0 6.0 0.00 0.00 0.00 96 1010.9
20260904092057 72 107 0.0 6.0 0.00 0.00 0.00 96 1010.9
20260904092002 72 107 1.0 6.0 0.00 0.00 0.00 96 1011.0
20260904091907 72 107 2.0 6.0 0.00 0.00 0.00 96 1011.0
20260904091756 72 107 3.0 6.0 0.00 0.00 0.00 96 1011.2
20260904091721 72 107 4.0 6.0 0.00 0.00 0.00 96 1011.2
20260904091558 72 111 4.0 6.0 0.00 0.00 0.00 96 1011.2
20260904091504 72 103 4.0 7.0 0.00 0.00 0.00 96 1011.1
20260904091408 72 114 3.0 8.0 0.00 0.00 0.00 96 1011.0
20260904091308 72 144 1.0 9.0 0.00 0.00 0.00 96 1011.0
20260904091156 72 145 1.0 9.0 0.00 0.00 0.00 96 1010.9
20260904091121 72 145 2.0 9.0 0.00 0.00 0.00 96 1010.8
20260904091005 72 145 2.0 9.0 0.00 0.00 0.00 96 1010.9
20260904090907 72 119 3.0 9.0 0.00 0.00 0.00 96 1010.9
20260904090812 72 115 3.0 9.0 0.00 0.00 0.00 96 1010.9
20260904090658 72 119 5.0 9.0 0.00 0.00 0.00 96 1011.1
20260904090623 72 98 6.0 9.0 0.00 0.00 0.00 96 1011.1
20260904090511 72 78 7.0 9.0 0.00 0.00 0.00 96 1011.1
20260904090355 72 96 6.0 9.0 0.00 0.00 0.00 96 1011.1
20260904090319 72 94 4.0 10.0 0.00 0.00 0.00 96 1011.1
20260904090156 72 117 2.0 13.0 0.00 0.00 0.00 96 1010.9
20260904090120 72 117 0.0 13.0 0.00 0.00 0.00 95 1010.9
20260904090023 72 117 0.0 13.0 0.00 0.00 0.00 95 1010.8
20260904085905 72 117 1.0 13.0 0.00 0.00 0.00 95 1010.8
20260904085814 72 117 3.0 13.0 0.00 0.00 0.00 95 1010.8
20260904085721 72 117 5.0 13.0 0.00 0.00 0.00 95 1010.8
20260904085559 72 112 7.0 13.0 0.00 0.00 0.00 95 1010.9
20260904085504 72 82 9.0 13.0 0.00 0.00 0.00 95 1010.9
20260904085409 72 80 9.0 13.0 0.00 0.00 0.00 96 1010.9
20260904085313 72 80 8.0 11.0 0.00 0.00 0.00 95 1010.8
20260904085242 72 85 7.0 9.0 0.00 0.00 0.00 96 1010.9
20260904085058 72 104 5.0 7.0 0.00 0.00 0.00 95 1010.7
20260904085003 72 117 4.0 6.0 0.00 0.00 0.00 95 1010.6
20260904084927 72 129 4.0 5.0 0.00 0.00 0.00 95 1010.6
20260904084831 72 159 3.0 5.0 0.00 0.00 0.00 95 1010.5
20260904084656 72 197 2.0 3.0 0.00 0.00 0.00 95 1010.4
20260904084600 72 217 1.0 3.0 0.00 0.00 0.00 95 1010.4
20260904084530 72 217 1.0 2.0 0.00 0.00 0.00 95 1010.4
20260904084414 72 217 0.0 2.0 0.00 0.00 0.00 95 1010.4
20260904084318 72 217 0.0 2.0 0.00 0.00 0.00 96 1010.4
20260904084202 72 217 0.0 3.0 0.00 0.00 0.00 96 1010.3
20260904084106 72 217 0.0 3.0 0.00 0.00 0.00 96 1010.3
20260904084010 73 217 0.0 3.0 0.00 0.00 0.00 95 1010.3
20260904083859 72 217 0.0 3.0 0.00 0.00 0.00 95 1010.2
20260904083804 72 217 1.0 3.0 0.00 0.00 0.00 95 1010.2
20260904083709 72 217 1.0 3.0 0.00 0.00 0.00 95 1010.2
20260904083633 73 217 1.0 3.0 0.00 0.00 0.00 95 1010.2
20260904083457 72 217 2.0 3.0 0.00 0.00 0.00 95 1010.2
20260904083402 72 217 2.0 4.0 0.00 0.00 0.00 95 1010.2
20260904083327 72 217 2.0 4.0 0.00 0.00 0.00 95 1010.2
20260904083231 72 217 2.0 4.0 0.00 0.00 0.00 95 1010.1
20260904083119 73 217 2.0 4.0 0.00 0.00 0.00 95 1010.1
20260904082956 73 217 2.0 4.0 0.00 0.00 0.00 95 1010.1
20260904082901 73 217 2.0 4.0 0.00 0.00 0.00 95 1010.2
20260904082807 73 217 2.0 4.0 0.00 0.00 0.00 95 1010.2
20260904082712 73 218 2.0 4.0 0.00 0.00 0.00 95 1010.2
20260904082600 73 218 2.0 4.0 0.00 0.00 0.00 95 1010.2
20260904082506 73 218 2.0 4.0 0.00 0.00 0.00 95 1010.2
20260904082411 73 218 2.0 4.0 0.00 0.00 0.00 95 1010.1
20260904082256 73 218 2.0 4.0 0.00 0.00 0.00 95 1010.1
20260904082200 73 218 2.0 4.0 0.00 0.00 0.00 95 1010.2
20260904082105 73 218 3.0 4.0 0.00 0.00 0.00 95 1010.2
20260904082014 73 218 2.0 4.0 0.00 0.00 0.00 95 1010.1
20260904081919 73 218 3.0 4.0 0.00 0.00 0.00 95 1010.1
20260904081756 72 218 3.0 4.0 0.00 0.00 0.00 95 1010.1
20260904081722 72 218 3.0 4.0 0.00 0.00 0.00 95 1010.1
20260904081606 72 218 3.0 4.0 0.00 0.00 0.00 95 1010.1
20260904081530 72 218 3.0 4.0 0.00 0.00 0.00 95 1010.2
20260904081434 72 218 3.0 3.0 0.00 0.00 0.00 95 1010.2
20260904081319 72 218 3.0 3.0 0.00 0.00 0.00 94 1010.2
20260904081206 72 218 3.0 3.0 0.00 0.00 0.00 94 1010.2
20260904081131 72 218 2.0 3.0 0.00 0.00 0.00 94 1010.2
20260904080956 72 218 2.0 3.0 0.00 0.00 0.00 94 1010.2
20260904080921 72 218 2.0 3.0 0.00 0.00 0.00 94 1010.1
20260904080805 72 218 2.0 3.0 0.00 0.00 0.00 94 1010.2
20260904080709 72 218 2.0 3.0 0.00 0.00 0.00 94 1010.2
20260904080634 72 218 2.0 3.0 0.00 0.00 0.00 94 1010.2
20260904080522 72 218 2.0 3.0 0.00 0.00 0.00 94 1010.3
20260904080358 72 218 2.0 3.0 0.00 0.00 0.00 94 1010.2
20260904080304 72 218 2.0 2.0 0.00 0.00 0.00 94 1010.2
20260904080206 72 218 2.0 2.0 0.00 0.00 0.00 94 1010.2
20260904080110 72 218 1.0 2.0 0.00 0.00 0.00 94 1010.2
20260904075956 73 218 1.0 3.0 0.00 0.00 0.00 94 1010.2
20260904075920 73 218 2.0 3.0 0.00 0.00 0.00 94 1010.2
20260904075807 73 218 1.0 3.0 0.00 0.00 0.00 94 1010.2
20260904075713 73 218 1.0 3.0 0.00 0.00 0.00 94 1010.3
20260904075557 73 218 1.0 3.0 0.00 0.00 0.00 94 1010.3
20260904075503 72 218 1.0 3.0 0.00 0.00 0.00 94 1010.2
20260904075407 73 218 2.0 3.0 0.00 0.00 0.00 94 1010.2
20260904075333 73 218 1.0 3.0 0.00 0.00 0.00 93 1010.2
20260904075201 73 218 2.0 3.0 0.00 0.00 0.00 93 1010.2
20260904075106 73 218 2.0 3.0 0.00 0.00 0.00 93 1010.2
20260904075010 73 218 2.0 3.0 0.00 0.00 0.00 93 1010.2
20260904074934 73 218 2.0 3.0 0.00 0.00 0.00 94 1010.1
20260904074817 73 218 2.0 3.0 0.00 0.00 0.00 94 1010.2
20260904074742 73 218 1.0 3.0 0.00 0.00 0.00 94 1010.2
20260904074558 73 218 1.0 3.0 0.00 0.00 0.00 94 1010.2
20260904074508 73 218 1.0 3.0 0.00 0.00 0.00 94 1010.2
20260904074412 73 218 1.0 4.0 0.00 0.00 0.00 94 1010.1
20260904074258 73 218 1.0 4.0 0.00 0.00 0.00 94 1010.1
20260904074203 73 218 1.0 4.0 0.00 0.00 0.00 94 1010.1
20260904074107 73 218 1.0 4.0 0.00 0.00 0.00 94 1010.1
20260904074033 73 218 2.0 4.0 0.00 0.00 0.00 94 1010.2
20260904073900 73 218 3.0 4.0 0.00 0.00 0.00 94 1010.1
20260904073806 73 218 3.0 4.0 0.00 0.00 0.00 94 1010.1
20260904073730 73 218 3.0 4.0 0.00 0.00 0.00 94 1010.2
20260904073615 73 218 3.0 4.0 0.00 0.00 0.00 94 1010.1
20260904073519 73 219 3.0 4.0 0.00 0.00 0.00 94 1010.2
20260904073357 73 219 3.0 3.0 0.00 0.00 0.00 94 1010.2
20260904073305 73 219 2.0 3.0 0.00 0.00 0.00 93 1010.2
20260904073211 73 219 2.0 4.0 0.00 0.00 0.00 93 1010.3
20260904073115 73 219 2.0 4.0 0.00 0.00 0.00 93 1010.2
20260904072959 73 219 2.0 4.0 0.00 0.00 0.00 93 1010.2
20260904072924 73 219 2.0 4.0 0.00 0.00 0.00 93 1010.3
20260904072808 73 219 2.0 4.0 0.00 0.00 0.00 93 1010.3
20260904072656 73 219 2.0 4.0 0.00 0.00 0.00 93 1010.2
20260904072601 73 219 2.0 4.0 0.00 0.00 0.00 93 1010.2